<?xml version="1.0" encoding="UTF-8" standalone="yes"?>
<gpx
 xmlns="http://www.topografix.com/GPX/1/1"
 creator="OziExplorer Version 3956f - http://www.oziexplorer.com"
 version="1.1"
 xmlns:xsi="http://www.w3.org/2001/XMLSchema-instance"
 xsi:schemaLocation="http://www.topografix.com/GPX/1/1 http://www.topografix.com/GPX/1/1/gpx.xsd">
<metadata>
 <time>2023-11-22T05:44:03Z</time>
 <bounds minlat="31.607610" minlon="34.925590" maxlat="31.670050" maxlon="34.991500"/>
</metadata>
<trk>
 <name>Adulam-29km400m</name>
 <desc>Adulam-29km400m</desc>
<trkseg>
<trkpt lat="31.6632500" lon="34.9364400">
<ele>276.500000</ele>
<time>2023-11-22T07:44:03.302Z</time>
</trkpt>
<trkpt lat="31.6632900" lon="34.9364200">
<ele>274.920013</ele>
<time>2023-11-22T07:44:03.302Z</time>
</trkpt>
<trkpt lat="31.6633400" lon="34.9364100">
<ele>273.429993</ele>
<time>2023-11-22T07:44:03.302Z</time>
</trkpt>
<trkpt lat="31.6633800" lon="34.9363900">
<ele>272.859985</ele>
<time>2023-11-22T07:44:03.302Z</time>
</trkpt>
<trkpt lat="31.6634200" lon="34.9363600">
<ele>272.309998</ele>
<time>2023-11-22T07:44:03.302Z</time>
</trkpt>
<trkpt lat="31.6637100" lon="34.9360200">
<ele>267.649994</ele>
<time>2023-11-22T07:44:03.302Z</time>
</trkpt>
<trkpt lat="31.6639200" lon="34.9358500">
<ele>269.410004</ele>
<time>2023-11-22T07:44:03.302Z</time>
</trkpt>
<trkpt lat="31.6641400" lon="34.9357000">
<ele>276.600006</ele>
<time>2023-11-22T07:44:03.302Z</time>
</trkpt>
<trkpt lat="31.6641900" lon="34.9356500">
<ele>277.920013</ele>
<time>2023-11-22T07:44:03.302Z</time>
</trkpt>
<trkpt lat="31.6642600" lon="34.9355500">
<ele>279.660004</ele>
<time>2023-11-22T07:44:03.302Z</time>
</trkpt>
<trkpt lat="31.6643200" lon="34.9353900">
<ele>280.489990</ele>
<time>2023-11-22T07:44:03.302Z</time>
</trkpt>
<trkpt lat="31.6643300" lon="34.9352700">
<ele>279.600006</ele>
<time>2023-11-22T07:44:03.302Z</time>
</trkpt>
<trkpt lat="31.6644000" lon="34.9347000">
<ele>274.520020</ele>
<time>2023-11-22T07:44:03.302Z</time>
</trkpt>
<trkpt lat="31.6644900" lon="34.9343500">
<ele>270.520020</ele>
<time>2023-11-22T07:44:03.302Z</time>
</trkpt>
<trkpt lat="31.6645400" lon="34.9342200">
<ele>268.910004</ele>
<time>2023-11-22T07:44:03.302Z</time>
</trkpt>
<trkpt lat="31.6647000" lon="34.9339000">
<ele>264.309998</ele>
<time>2023-11-22T07:44:03.302Z</time>
</trkpt>
<trkpt lat="31.6649400" lon="34.9334800">
<ele>263.660004</ele>
<time>2023-11-22T07:44:03.302Z</time>
</trkpt>
<trkpt lat="31.6650800" lon="34.9332000">
<ele>264.420013</ele>
<time>2023-11-22T07:44:03.303Z</time>
</trkpt>
<trkpt lat="31.6654200" lon="34.9323800">
<ele>261.029999</ele>
<time>2023-11-22T07:44:03.303Z</time>
</trkpt>
<trkpt lat="31.6654700" lon="34.9322500">
<ele>259.790009</ele>
<time>2023-11-22T07:44:03.303Z</time>
</trkpt>
<trkpt lat="31.6655300" lon="34.9321900">
<ele>259.510010</ele>
<time>2023-11-22T07:44:03.303Z</time>
</trkpt>
<trkpt lat="31.6656200" lon="34.9321000">
<ele>260.000000</ele>
<time>2023-11-22T07:44:03.303Z</time>
</trkpt>
<trkpt lat="31.6657900" lon="34.9320200">
<ele>261.880005</ele>
<time>2023-11-22T07:44:03.303Z</time>
</trkpt>
<trkpt lat="31.6657900" lon="34.9320200">
<ele>261.880005</ele>
<time>2023-11-22T07:44:03.303Z</time>
</trkpt>
<trkpt lat="31.6657900" lon="34.9320200">
<ele>261.880005</ele>
<time>2023-11-22T07:44:03.303Z</time>
</trkpt>
<trkpt lat="31.6658600" lon="34.9319800">
<ele>262.570007</ele>
<time>2023-11-22T07:44:03.303Z</time>
</trkpt>
<trkpt lat="31.6660600" lon="34.9319500">
<ele>268.380005</ele>
<time>2023-11-22T07:44:03.303Z</time>
</trkpt>
<trkpt lat="31.6644500" lon="34.9306900">
<ele>272.019989</ele>
<time>2023-11-22T07:44:03.303Z</time>
</trkpt>
<trkpt lat="31.6643300" lon="34.9306100">
<ele>273.489990</ele>
<time>2023-11-22T07:44:03.303Z</time>
</trkpt>
<trkpt lat="31.6639700" lon="34.9304300">
<ele>272.649994</ele>
<time>2023-11-22T07:44:03.303Z</time>
</trkpt>
<trkpt lat="31.6638200" lon="34.9303800">
<ele>271.639984</ele>
<time>2023-11-22T07:44:03.303Z</time>
</trkpt>
<trkpt lat="31.6633600" lon="34.9303200">
<ele>274.139984</ele>
<time>2023-11-22T07:44:03.303Z</time>
</trkpt>
<trkpt lat="31.6627300" lon="34.9302200">
<ele>265.269989</ele>
<time>2023-11-22T07:44:03.303Z</time>
</trkpt>
<trkpt lat="31.6625000" lon="34.9301900">
<ele>266.100006</ele>
<time>2023-11-22T07:44:03.303Z</time>
</trkpt>
<trkpt lat="31.6620200" lon="34.9301700">
<ele>262.339996</ele>
<time>2023-11-22T07:44:03.303Z</time>
</trkpt>
<trkpt lat="31.6617200" lon="34.9302100">
<ele>262.020020</ele>
<time>2023-11-22T07:44:03.303Z</time>
</trkpt>
<trkpt lat="31.6615500" lon="34.9302700">
<ele>262.899994</ele>
<time>2023-11-22T07:44:03.304Z</time>
</trkpt>
<trkpt lat="31.6608000" lon="34.9307100">
<ele>266.959991</ele>
<time>2023-11-22T07:44:03.304Z</time>
</trkpt>
<trkpt lat="31.6606700" lon="34.9307500">
<ele>267.059998</ele>
<time>2023-11-22T07:44:03.304Z</time>
</trkpt>
<trkpt lat="31.6604900" lon="34.9307600">
<ele>267.510010</ele>
<time>2023-11-22T07:44:03.304Z</time>
</trkpt>
<trkpt lat="31.6602800" lon="34.9307500">
<ele>268.389984</ele>
<time>2023-11-22T07:44:03.304Z</time>
</trkpt>
<trkpt lat="31.6600900" lon="34.9307100">
<ele>273.600006</ele>
<time>2023-11-22T07:44:03.304Z</time>
</trkpt>
<trkpt lat="31.6599700" lon="34.9306600">
<ele>275.910004</ele>
<time>2023-11-22T07:44:03.304Z</time>
</trkpt>
<trkpt lat="31.6595800" lon="34.9303900">
<ele>276.449982</ele>
<time>2023-11-22T07:44:03.304Z</time>
</trkpt>
<trkpt lat="31.6594800" lon="34.9303300">
<ele>275.550018</ele>
<time>2023-11-22T07:44:03.304Z</time>
</trkpt>
<trkpt lat="31.6593400" lon="34.9302700">
<ele>273.539978</ele>
<time>2023-11-22T07:44:03.304Z</time>
</trkpt>
<trkpt lat="31.6592000" lon="34.9302300">
<ele>272.600006</ele>
<time>2023-11-22T07:44:03.304Z</time>
</trkpt>
<trkpt lat="31.6591400" lon="34.9302100">
<ele>272.080017</ele>
<time>2023-11-22T07:44:03.304Z</time>
</trkpt>
<trkpt lat="31.6589100" lon="34.9301900">
<ele>269.959991</ele>
<time>2023-11-22T07:44:03.304Z</time>
</trkpt>
<trkpt lat="31.6574400" lon="34.9301900">
<ele>276.679993</ele>
<time>2023-11-22T07:44:03.304Z</time>
</trkpt>
<trkpt lat="31.6570400" lon="34.9302300">
<ele>276.910004</ele>
<time>2023-11-22T07:44:03.304Z</time>
</trkpt>
<trkpt lat="31.6565000" lon="34.9302500">
<ele>278.740021</ele>
<time>2023-11-22T07:44:03.304Z</time>
</trkpt>
<trkpt lat="31.6563500" lon="34.9302900">
<ele>279.809998</ele>
<time>2023-11-22T07:44:03.304Z</time>
</trkpt>
<trkpt lat="31.6562700" lon="34.9303300">
<ele>279.519989</ele>
<time>2023-11-22T07:44:03.304Z</time>
</trkpt>
<trkpt lat="31.6561600" lon="34.9300700">
<ele>277.600006</ele>
<time>2023-11-22T07:44:03.304Z</time>
</trkpt>
<trkpt lat="31.6561100" lon="34.9295800">
<ele>280.029999</ele>
<time>2023-11-22T07:44:03.304Z</time>
</trkpt>
<trkpt lat="31.6561700" lon="34.9292600">
<ele>282.160004</ele>
<time>2023-11-22T07:44:03.304Z</time>
</trkpt>
<trkpt lat="31.6562300" lon="34.9290800">
<ele>283.950012</ele>
<time>2023-11-22T07:44:03.305Z</time>
</trkpt>
<trkpt lat="31.6562900" lon="34.9288800">
<ele>285.679993</ele>
<time>2023-11-22T07:44:03.305Z</time>
</trkpt>
<trkpt lat="31.6548800" lon="34.9283900">
<ele>294.490021</ele>
<time>2023-11-22T07:44:03.305Z</time>
</trkpt>
<trkpt lat="31.6543400" lon="34.9280300">
<ele>292.110016</ele>
<time>2023-11-22T07:44:03.305Z</time>
</trkpt>
<trkpt lat="31.6538600" lon="34.9278200">
<ele>297.550018</ele>
<time>2023-11-22T07:44:03.305Z</time>
</trkpt>
<trkpt lat="31.6538600" lon="34.9278200">
<ele>297.550018</ele>
<time>2023-11-22T07:44:03.305Z</time>
</trkpt>
<trkpt lat="31.6536200" lon="34.9277200">
<ele>297.750000</ele>
<time>2023-11-22T07:44:03.305Z</time>
</trkpt>
<trkpt lat="31.6528200" lon="34.9276400">
<ele>292.910004</ele>
<time>2023-11-22T07:44:03.305Z</time>
</trkpt>
<trkpt lat="31.6522800" lon="34.9275000">
<ele>298.790009</ele>
<time>2023-11-22T07:44:03.305Z</time>
</trkpt>
<trkpt lat="31.6517300" lon="34.9273600">
<ele>301.630005</ele>
<time>2023-11-22T07:44:03.305Z</time>
</trkpt>
<trkpt lat="31.6516200" lon="34.9273300">
<ele>301.369995</ele>
<time>2023-11-22T07:44:03.305Z</time>
</trkpt>
<trkpt lat="31.6511500" lon="34.9270700">
<ele>300.449982</ele>
<time>2023-11-22T07:44:03.305Z</time>
</trkpt>
<trkpt lat="31.6506800" lon="34.9269200">
<ele>306.510010</ele>
<time>2023-11-22T07:44:03.305Z</time>
</trkpt>
<trkpt lat="31.6502000" lon="34.9267700">
<ele>309.580017</ele>
<time>2023-11-22T07:44:03.305Z</time>
</trkpt>
<trkpt lat="31.6497300" lon="34.9266300">
<ele>307.740021</ele>
<time>2023-11-22T07:44:03.305Z</time>
</trkpt>
<trkpt lat="31.6492500" lon="34.9264800">
<ele>300.700012</ele>
<time>2023-11-22T07:44:03.305Z</time>
</trkpt>
<trkpt lat="31.6487800" lon="34.9263300">
<ele>302.769989</ele>
<time>2023-11-22T07:44:03.305Z</time>
</trkpt>
<trkpt lat="31.6483100" lon="34.9261800">
<ele>302.820007</ele>
<time>2023-11-22T07:44:03.305Z</time>
</trkpt>
<trkpt lat="31.6478300" lon="34.9260300">
<ele>298.529999</ele>
<time>2023-11-22T07:44:03.305Z</time>
</trkpt>
<trkpt lat="31.6473600" lon="34.9258900">
<ele>298.779999</ele>
<time>2023-11-22T07:44:03.305Z</time>
</trkpt>
<trkpt lat="31.6468800" lon="34.9257400">
<ele>308.830017</ele>
<time>2023-11-22T07:44:03.305Z</time>
</trkpt>
<trkpt lat="31.6464100" lon="34.9255900">
<ele>312.140015</ele>
<time>2023-11-22T07:44:03.305Z</time>
</trkpt>
<trkpt lat="31.6463900" lon="34.9256600">
<ele>311.630005</ele>
<time>2023-11-22T07:44:03.306Z</time>
</trkpt>
<trkpt lat="31.6463400" lon="34.9258200">
<ele>310.850006</ele>
<time>2023-11-22T07:44:03.306Z</time>
</trkpt>
<trkpt lat="31.6463900" lon="34.9260000">
<ele>310.390015</ele>
<time>2023-11-22T07:44:03.306Z</time>
</trkpt>
<trkpt lat="31.6465200" lon="34.9261900">
<ele>307.200012</ele>
<time>2023-11-22T07:44:03.306Z</time>
</trkpt>
<trkpt lat="31.6465200" lon="34.9261900">
<ele>307.200012</ele>
<time>2023-11-22T07:44:03.306Z</time>
</trkpt>
<trkpt lat="31.6465200" lon="34.9261900">
<ele>307.200012</ele>
<time>2023-11-22T07:44:03.306Z</time>
</trkpt>
<trkpt lat="31.6465400" lon="34.9262300">
<ele>306.149994</ele>
<time>2023-11-22T07:44:03.306Z</time>
</trkpt>
<trkpt lat="31.6466500" lon="34.9265000">
<ele>298.440002</ele>
<time>2023-11-22T07:44:03.306Z</time>
</trkpt>
<trkpt lat="31.6466600" lon="34.9267100">
<ele>295.160004</ele>
<time>2023-11-22T07:44:03.306Z</time>
</trkpt>
<trkpt lat="31.6466600" lon="34.9268700">
<ele>295.050018</ele>
<time>2023-11-22T07:44:03.306Z</time>
</trkpt>
<trkpt lat="31.6465400" lon="34.9272600">
<ele>294.790009</ele>
<time>2023-11-22T07:44:03.306Z</time>
</trkpt>
<trkpt lat="31.6459800" lon="34.9283900">
<ele>301.920013</ele>
<time>2023-11-22T07:44:03.306Z</time>
</trkpt>
<trkpt lat="31.6457200" lon="34.9287800">
<ele>307.459991</ele>
<time>2023-11-22T07:44:03.306Z</time>
</trkpt>
<trkpt lat="31.6452600" lon="34.9292000">
<ele>305.489990</ele>
<time>2023-11-22T07:44:03.306Z</time>
</trkpt>
<trkpt lat="31.6445100" lon="34.9297600">
<ele>308.279999</ele>
<time>2023-11-22T07:44:03.306Z</time>
</trkpt>
<trkpt lat="31.6425300" lon="34.9312000">
<ele>307.959991</ele>
<time>2023-11-22T07:44:03.306Z</time>
</trkpt>
<trkpt lat="31.6423300" lon="34.9313200">
<ele>310.480011</ele>
<time>2023-11-22T07:44:03.306Z</time>
</trkpt>
<trkpt lat="31.6417900" lon="34.9315900">
<ele>316.350006</ele>
<time>2023-11-22T07:44:03.306Z</time>
</trkpt>
<trkpt lat="31.6406500" lon="34.9321500">
<ele>317.730011</ele>
<time>2023-11-22T07:44:03.306Z</time>
</trkpt>
<trkpt lat="31.6399100" lon="34.9324300">
<ele>312.750000</ele>
<time>2023-11-22T07:44:03.306Z</time>
</trkpt>
<trkpt lat="31.6394700" lon="34.9326100">
<ele>314.820007</ele>
<time>2023-11-22T07:44:03.306Z</time>
</trkpt>
<trkpt lat="31.6391600" lon="34.9327800">
<ele>319.899994</ele>
<time>2023-11-22T07:44:03.307Z</time>
</trkpt>
<trkpt lat="31.6387600" lon="34.9330700">
<ele>316.760010</ele>
<time>2023-11-22T07:44:03.307Z</time>
</trkpt>
<trkpt lat="31.6383400" lon="34.9334300">
<ele>320.749969</ele>
<time>2023-11-22T07:44:03.307Z</time>
</trkpt>
<trkpt lat="31.6379300" lon="34.9338400">
<ele>321.839996</ele>
<time>2023-11-22T07:44:03.307Z</time>
</trkpt>
<trkpt lat="31.6377300" lon="34.9341100">
<ele>323.209991</ele>
<time>2023-11-22T07:44:03.307Z</time>
</trkpt>
<trkpt lat="31.6373800" lon="34.9348200">
<ele>325.199982</ele>
<time>2023-11-22T07:44:03.307Z</time>
</trkpt>
<trkpt lat="31.6369700" lon="34.9356100">
<ele>325.929993</ele>
<time>2023-11-22T07:44:03.307Z</time>
</trkpt>
<trkpt lat="31.6368900" lon="34.9356100">
<ele>325.859985</ele>
<time>2023-11-22T07:44:03.307Z</time>
</trkpt>
<trkpt lat="31.6368100" lon="34.9356300">
<ele>326.170013</ele>
<time>2023-11-22T07:44:03.307Z</time>
</trkpt>
<trkpt lat="31.6367300" lon="34.9356700">
<ele>326.470001</ele>
<time>2023-11-22T07:44:03.307Z</time>
</trkpt>
<trkpt lat="31.6366400" lon="34.9357900">
<ele>326.809998</ele>
<time>2023-11-22T07:44:03.307Z</time>
</trkpt>
<trkpt lat="31.6365500" lon="34.9358200">
<ele>326.610016</ele>
<time>2023-11-22T07:44:03.307Z</time>
</trkpt>
<trkpt lat="31.6362600" lon="34.9359700">
<ele>327.479980</ele>
<time>2023-11-22T07:44:03.307Z</time>
</trkpt>
<trkpt lat="31.6361300" lon="34.9360900">
<ele>327.980011</ele>
<time>2023-11-22T07:44:03.307Z</time>
</trkpt>
<trkpt lat="31.6359900" lon="34.9361500">
<ele>331.649994</ele>
<time>2023-11-22T07:44:03.307Z</time>
</trkpt>
<trkpt lat="31.6354500" lon="34.9362000">
<ele>339.730011</ele>
<time>2023-11-22T07:44:03.307Z</time>
</trkpt>
<trkpt lat="31.6353700" lon="34.9364100">
<ele>337.839996</ele>
<time>2023-11-22T07:44:03.307Z</time>
</trkpt>
<trkpt lat="31.6353500" lon="34.9365000">
<ele>336.889984</ele>
<time>2023-11-22T07:44:03.307Z</time>
</trkpt>
<trkpt lat="31.6353200" lon="34.9365700">
<ele>335.800018</ele>
<time>2023-11-22T07:44:03.307Z</time>
</trkpt>
<trkpt lat="31.6353100" lon="34.9367300">
<ele>334.440002</ele>
<time>2023-11-22T07:44:03.307Z</time>
</trkpt>
<trkpt lat="31.6351700" lon="34.9370000">
<ele>333.830017</ele>
<time>2023-11-22T07:44:03.307Z</time>
</trkpt>
<trkpt lat="31.6344700" lon="34.9379600">
<ele>337.119995</ele>
<time>2023-11-22T07:44:03.308Z</time>
</trkpt>
<trkpt lat="31.6342200" lon="34.9387300">
<ele>344.930023</ele>
<time>2023-11-22T07:44:03.308Z</time>
</trkpt>
<trkpt lat="31.6340200" lon="34.9390100">
<ele>349.220001</ele>
<time>2023-11-22T07:44:03.308Z</time>
</trkpt>
<trkpt lat="31.6338200" lon="34.9394600">
<ele>355.389984</ele>
<time>2023-11-22T07:44:03.308Z</time>
</trkpt>
<trkpt lat="31.6336600" lon="34.9399900">
<ele>359.500000</ele>
<time>2023-11-22T07:44:03.308Z</time>
</trkpt>
<trkpt lat="31.6335200" lon="34.9401800">
<ele>361.700012</ele>
<time>2023-11-22T07:44:03.308Z</time>
</trkpt>
<trkpt lat="31.6334400" lon="34.9402400">
<ele>362.659973</ele>
<time>2023-11-22T07:44:03.308Z</time>
</trkpt>
<trkpt lat="31.6330600" lon="34.9404400">
<ele>363.980011</ele>
<time>2023-11-22T07:44:03.308Z</time>
</trkpt>
<trkpt lat="31.6329300" lon="34.9405700">
<ele>361.910004</ele>
<time>2023-11-22T07:44:03.308Z</time>
</trkpt>
<trkpt lat="31.6327600" lon="34.9408100">
<ele>359.809998</ele>
<time>2023-11-22T07:44:03.308Z</time>
</trkpt>
<trkpt lat="31.6325800" lon="34.9410200">
<ele>359.069977</ele>
<time>2023-11-22T07:44:03.308Z</time>
</trkpt>
<trkpt lat="31.6324100" lon="34.9411100">
<ele>357.660004</ele>
<time>2023-11-22T07:44:03.308Z</time>
</trkpt>
<trkpt lat="31.6322800" lon="34.9411900">
<ele>359.220001</ele>
<time>2023-11-22T07:44:03.308Z</time>
</trkpt>
<trkpt lat="31.6320100" lon="34.9416400">
<ele>363.720001</ele>
<time>2023-11-22T07:44:03.308Z</time>
</trkpt>
<trkpt lat="31.6319800" lon="34.9417300">
<ele>363.869995</ele>
<time>2023-11-22T07:44:03.308Z</time>
</trkpt>
<trkpt lat="31.6319000" lon="34.9418900">
<ele>364.830017</ele>
<time>2023-11-22T07:44:03.308Z</time>
</trkpt>
<trkpt lat="31.6315600" lon="34.9422900">
<ele>368.179993</ele>
<time>2023-11-22T07:44:03.308Z</time>
</trkpt>
<trkpt lat="31.6315300" lon="34.9423600">
<ele>369.240021</ele>
<time>2023-11-22T07:44:03.308Z</time>
</trkpt>
<trkpt lat="31.6314600" lon="34.9425800">
<ele>372.070007</ele>
<time>2023-11-22T07:44:03.308Z</time>
</trkpt>
<trkpt lat="31.6313800" lon="34.9428000">
<ele>374.059998</ele>
<time>2023-11-22T07:44:03.308Z</time>
</trkpt>
<trkpt lat="31.6309400" lon="34.9433300">
<ele>374.450012</ele>
<time>2023-11-22T07:44:03.308Z</time>
</trkpt>
<trkpt lat="31.6308400" lon="34.9434800">
<ele>376.470001</ele>
<time>2023-11-22T07:44:03.308Z</time>
</trkpt>
<trkpt lat="31.6305200" lon="34.9440700">
<ele>379.709991</ele>
<time>2023-11-22T07:44:03.308Z</time>
</trkpt>
<trkpt lat="31.6304900" lon="34.9441700">
<ele>378.050018</ele>
<time>2023-11-22T07:44:03.309Z</time>
</trkpt>
<trkpt lat="31.6303800" lon="34.9443100">
<ele>375.820007</ele>
<time>2023-11-22T07:44:03.309Z</time>
</trkpt>
<trkpt lat="31.6298200" lon="34.9443300">
<ele>369.149994</ele>
<time>2023-11-22T07:44:03.309Z</time>
</trkpt>
<trkpt lat="31.6296100" lon="34.9443200">
<ele>367.309998</ele>
<time>2023-11-22T07:44:03.309Z</time>
</trkpt>
<trkpt lat="31.6295200" lon="34.9443500">
<ele>366.080017</ele>
<time>2023-11-22T07:44:03.309Z</time>
</trkpt>
<trkpt lat="31.6294100" lon="34.9444000">
<ele>364.660004</ele>
<time>2023-11-22T07:44:03.309Z</time>
</trkpt>
<trkpt lat="31.6293300" lon="34.9444100">
<ele>364.549988</ele>
<time>2023-11-22T07:44:03.309Z</time>
</trkpt>
<trkpt lat="31.6292600" lon="34.9444200">
<ele>364.410004</ele>
<time>2023-11-22T07:44:03.309Z</time>
</trkpt>
<trkpt lat="31.6289000" lon="34.9441600">
<ele>368.109985</ele>
<time>2023-11-22T07:44:03.309Z</time>
</trkpt>
<trkpt lat="31.6286400" lon="34.9439100">
<ele>371.040009</ele>
<time>2023-11-22T07:44:03.309Z</time>
</trkpt>
<trkpt lat="31.6283000" lon="34.9434900">
<ele>368.430023</ele>
<time>2023-11-22T07:44:03.309Z</time>
</trkpt>
<trkpt lat="31.6282000" lon="34.9433900">
<ele>369.540009</ele>
<time>2023-11-22T07:44:03.309Z</time>
</trkpt>
<trkpt lat="31.6277400" lon="34.9430000">
<ele>371.190002</ele>
<time>2023-11-22T07:44:03.309Z</time>
</trkpt>
<trkpt lat="31.6276000" lon="34.9428700">
<ele>368.179993</ele>
<time>2023-11-22T07:44:03.309Z</time>
</trkpt>
<trkpt lat="31.6273900" lon="34.9427000">
<ele>361.720001</ele>
<time>2023-11-22T07:44:03.309Z</time>
</trkpt>
<trkpt lat="31.6270900" lon="34.9425100">
<ele>362.339996</ele>
<time>2023-11-22T07:44:03.309Z</time>
</trkpt>
<trkpt lat="31.6268800" lon="34.9423400">
<ele>359.309998</ele>
<time>2023-11-22T07:44:03.309Z</time>
</trkpt>
<trkpt lat="31.6267900" lon="34.9422600">
<ele>356.779999</ele>
<time>2023-11-22T07:44:03.309Z</time>
</trkpt>
<trkpt lat="31.6265200" lon="34.9419400">
<ele>351.420013</ele>
<time>2023-11-22T07:44:03.309Z</time>
</trkpt>
<trkpt lat="31.6264500" lon="34.9418800">
<ele>350.339996</ele>
<time>2023-11-22T07:44:03.309Z</time>
</trkpt>
<trkpt lat="31.6263600" lon="34.9418400">
<ele>349.139984</ele>
<time>2023-11-22T07:44:03.309Z</time>
</trkpt>
<trkpt lat="31.6258200" lon="34.9411000">
<ele>340.130005</ele>
<time>2023-11-22T07:44:03.309Z</time>
</trkpt>
<trkpt lat="31.6256800" lon="34.9408500">
<ele>339.969971</ele>
<time>2023-11-22T07:44:03.310Z</time>
</trkpt>
<trkpt lat="31.6256300" lon="34.9407100">
<ele>339.570007</ele>
<time>2023-11-22T07:44:03.310Z</time>
</trkpt>
<trkpt lat="31.6253900" lon="34.9399500">
<ele>330.970001</ele>
<time>2023-11-22T07:44:03.310Z</time>
</trkpt>
<trkpt lat="31.6253700" lon="34.9397100">
<ele>328.969971</ele>
<time>2023-11-22T07:44:03.310Z</time>
</trkpt>
<trkpt lat="31.6253400" lon="34.9396100">
<ele>328.690002</ele>
<time>2023-11-22T07:44:03.310Z</time>
</trkpt>
<trkpt lat="31.6252900" lon="34.9394900">
<ele>328.199982</ele>
<time>2023-11-22T07:44:03.310Z</time>
</trkpt>
<trkpt lat="31.6251600" lon="34.9392900">
<ele>330.949982</ele>
<time>2023-11-22T07:44:03.310Z</time>
</trkpt>
<trkpt lat="31.6250200" lon="34.9388600">
<ele>333.020020</ele>
<time>2023-11-22T07:44:03.310Z</time>
</trkpt>
<trkpt lat="31.6247700" lon="34.9383000">
<ele>324.229980</ele>
<time>2023-11-22T07:44:03.310Z</time>
</trkpt>
<trkpt lat="31.6246200" lon="34.9378600">
<ele>321.739990</ele>
<time>2023-11-22T07:44:03.310Z</time>
</trkpt>
<trkpt lat="31.6244300" lon="34.9374900">
<ele>322.140015</ele>
<time>2023-11-22T07:44:03.310Z</time>
</trkpt>
<trkpt lat="31.6243600" lon="34.9372700">
<ele>322.929993</ele>
<time>2023-11-22T07:44:03.310Z</time>
</trkpt>
<trkpt lat="31.6239400" lon="34.9355600">
<ele>314.750031</ele>
<time>2023-11-22T07:44:03.310Z</time>
</trkpt>
<trkpt lat="31.6238900" lon="34.9350200">
<ele>311.179993</ele>
<time>2023-11-22T07:44:03.310Z</time>
</trkpt>
<trkpt lat="31.6238900" lon="34.9346800">
<ele>307.869995</ele>
<time>2023-11-22T07:44:03.310Z</time>
</trkpt>
<trkpt lat="31.6238800" lon="34.9345400">
<ele>307.299988</ele>
<time>2023-11-22T07:44:03.310Z</time>
</trkpt>
<trkpt lat="31.6238600" lon="34.9344000">
<ele>306.899994</ele>
<time>2023-11-22T07:44:03.310Z</time>
</trkpt>
<trkpt lat="31.6237400" lon="34.9341300">
<ele>305.329987</ele>
<time>2023-11-22T07:44:03.310Z</time>
</trkpt>
<trkpt lat="31.6236400" lon="34.9338600">
<ele>304.420013</ele>
<time>2023-11-22T07:44:03.310Z</time>
</trkpt>
<trkpt lat="31.6235500" lon="34.9335200">
<ele>304.230011</ele>
<time>2023-11-22T07:44:03.310Z</time>
</trkpt>
<trkpt lat="31.6235400" lon="34.9333800">
<ele>303.660004</ele>
<time>2023-11-22T07:44:03.310Z</time>
</trkpt>
<trkpt lat="31.6235300" lon="34.9330800">
<ele>302.500000</ele>
<time>2023-11-22T07:44:03.310Z</time>
</trkpt>
<trkpt lat="31.6235200" lon="34.9329400">
<ele>302.619995</ele>
<time>2023-11-22T07:44:03.310Z</time>
</trkpt>
<trkpt lat="31.6233800" lon="34.9325500">
<ele>301.100006</ele>
<time>2023-11-22T07:44:03.310Z</time>
</trkpt>
<trkpt lat="31.6233600" lon="34.9323300">
<ele>299.470001</ele>
<time>2023-11-22T07:44:03.310Z</time>
</trkpt>
<trkpt lat="31.6233200" lon="34.9320000">
<ele>297.820007</ele>
<time>2023-11-22T07:44:03.310Z</time>
</trkpt>
<trkpt lat="31.6233000" lon="34.9317000">
<ele>296.850006</ele>
<time>2023-11-22T07:44:03.311Z</time>
</trkpt>
<trkpt lat="31.6232900" lon="34.9315700">
<ele>295.809998</ele>
<time>2023-11-22T07:44:03.311Z</time>
</trkpt>
<trkpt lat="31.6232700" lon="34.9307400">
<ele>292.380005</ele>
<time>2023-11-22T07:44:03.311Z</time>
</trkpt>
<trkpt lat="31.6232600" lon="34.9305100">
<ele>292.510010</ele>
<time>2023-11-22T07:44:03.311Z</time>
</trkpt>
<trkpt lat="31.6232500" lon="34.9303400">
<ele>293.389984</ele>
<time>2023-11-22T07:44:03.311Z</time>
</trkpt>
<trkpt lat="31.6232100" lon="34.9300500">
<ele>292.639984</ele>
<time>2023-11-22T07:44:03.311Z</time>
</trkpt>
<trkpt lat="31.6231500" lon="34.9297900">
<ele>292.899994</ele>
<time>2023-11-22T07:44:03.311Z</time>
</trkpt>
<trkpt lat="31.6230100" lon="34.9294800">
<ele>297.130005</ele>
<time>2023-11-22T07:44:03.311Z</time>
</trkpt>
<trkpt lat="31.6228700" lon="34.9292800">
<ele>300.380005</ele>
<time>2023-11-22T07:44:03.311Z</time>
</trkpt>
<trkpt lat="31.6227300" lon="34.9290900">
<ele>303.250000</ele>
<time>2023-11-22T07:44:03.311Z</time>
</trkpt>
<trkpt lat="31.6221100" lon="34.9283800">
<ele>300.359985</ele>
<time>2023-11-22T07:44:03.311Z</time>
</trkpt>
<trkpt lat="31.6214500" lon="34.9277700">
<ele>298.640015</ele>
<time>2023-11-22T07:44:03.311Z</time>
</trkpt>
<trkpt lat="31.6207200" lon="34.9273800">
<ele>285.019989</ele>
<time>2023-11-22T07:44:03.311Z</time>
</trkpt>
<trkpt lat="31.6200800" lon="34.9271200">
<ele>292.750000</ele>
<time>2023-11-22T07:44:03.311Z</time>
</trkpt>
<trkpt lat="31.6199600" lon="34.9270300">
<ele>293.899994</ele>
<time>2023-11-22T07:44:03.311Z</time>
</trkpt>
<trkpt lat="31.6196600" lon="34.9270100">
<ele>297.660004</ele>
<time>2023-11-22T07:44:03.311Z</time>
</trkpt>
<trkpt lat="31.6191600" lon="34.9268000">
<ele>291.380005</ele>
<time>2023-11-22T07:44:03.311Z</time>
</trkpt>
<trkpt lat="31.6188300" lon="34.9267600">
<ele>287.750000</ele>
<time>2023-11-22T07:44:03.311Z</time>
</trkpt>
<trkpt lat="31.6185300" lon="34.9268000">
<ele>283.739990</ele>
<time>2023-11-22T07:44:03.311Z</time>
</trkpt>
<trkpt lat="31.6184200" lon="34.9268300">
<ele>282.929993</ele>
<time>2023-11-22T07:44:03.311Z</time>
</trkpt>
<trkpt lat="31.6182900" lon="34.9269400">
<ele>282.200012</ele>
<time>2023-11-22T07:44:03.311Z</time>
</trkpt>
<trkpt lat="31.6182500" lon="34.9269800">
<ele>281.759979</ele>
<time>2023-11-22T07:44:03.311Z</time>
</trkpt>
<trkpt lat="31.6178200" lon="34.9273400">
<ele>277.029999</ele>
<time>2023-11-22T07:44:03.311Z</time>
</trkpt>
<trkpt lat="31.6176600" lon="34.9274300">
<ele>276.500000</ele>
<time>2023-11-22T07:44:03.311Z</time>
</trkpt>
<trkpt lat="31.6175500" lon="34.9274600">
<ele>276.049988</ele>
<time>2023-11-22T07:44:03.312Z</time>
</trkpt>
<trkpt lat="31.6171700" lon="34.9274800">
<ele>275.910004</ele>
<time>2023-11-22T07:44:03.312Z</time>
</trkpt>
<trkpt lat="31.6171100" lon="34.9274900">
<ele>275.950012</ele>
<time>2023-11-22T07:44:03.312Z</time>
</trkpt>
<trkpt lat="31.6170300" lon="34.9275400">
<ele>276.329987</ele>
<time>2023-11-22T07:44:03.312Z</time>
</trkpt>
<trkpt lat="31.6170000" lon="34.9276100">
<ele>276.869995</ele>
<time>2023-11-22T07:44:03.312Z</time>
</trkpt>
<trkpt lat="31.6169700" lon="34.9278700">
<ele>278.850006</ele>
<time>2023-11-22T07:44:03.312Z</time>
</trkpt>
<trkpt lat="31.6169200" lon="34.9280300">
<ele>279.820007</ele>
<time>2023-11-22T07:44:03.312Z</time>
</trkpt>
<trkpt lat="31.6167500" lon="34.9285100">
<ele>282.809998</ele>
<time>2023-11-22T07:44:03.312Z</time>
</trkpt>
<trkpt lat="31.6166800" lon="34.9286500">
<ele>282.410004</ele>
<time>2023-11-22T07:44:03.312Z</time>
</trkpt>
<trkpt lat="31.6165400" lon="34.9290000">
<ele>282.429993</ele>
<time>2023-11-22T07:44:03.312Z</time>
</trkpt>
<trkpt lat="31.6164500" lon="34.9291700">
<ele>282.699982</ele>
<time>2023-11-22T07:44:03.312Z</time>
</trkpt>
<trkpt lat="31.6164300" lon="34.9293000">
<ele>283.960022</ele>
<time>2023-11-22T07:44:03.312Z</time>
</trkpt>
<trkpt lat="31.6164200" lon="34.9297100">
<ele>287.679993</ele>
<time>2023-11-22T07:44:03.312Z</time>
</trkpt>
<trkpt lat="31.6164100" lon="34.9300300">
<ele>290.319977</ele>
<time>2023-11-22T07:44:03.312Z</time>
</trkpt>
<trkpt lat="31.6163400" lon="34.9303300">
<ele>293.929993</ele>
<time>2023-11-22T07:44:03.312Z</time>
</trkpt>
<trkpt lat="31.6162200" lon="34.9305100">
<ele>291.300018</ele>
<time>2023-11-22T07:44:03.312Z</time>
</trkpt>
<trkpt lat="31.6160100" lon="34.9313500">
<ele>300.940002</ele>
<time>2023-11-22T07:44:03.312Z</time>
</trkpt>
<trkpt lat="31.6158000" lon="34.9319800">
<ele>296.309998</ele>
<time>2023-11-22T07:44:03.312Z</time>
</trkpt>
<trkpt lat="31.6157300" lon="34.9328400">
<ele>302.309998</ele>
<time>2023-11-22T07:44:03.312Z</time>
</trkpt>
<trkpt lat="31.6157200" lon="34.9332600">
<ele>303.660004</ele>
<time>2023-11-22T07:44:03.312Z</time>
</trkpt>
<trkpt lat="31.6156800" lon="34.9336800">
<ele>304.890015</ele>
<time>2023-11-22T07:44:03.312Z</time>
</trkpt>
<trkpt lat="31.6155800" lon="34.9339400">
<ele>304.260010</ele>
<time>2023-11-22T07:44:03.313Z</time>
</trkpt>
<trkpt lat="31.6155400" lon="34.9342800">
<ele>305.260010</ele>
<time>2023-11-22T07:44:03.313Z</time>
</trkpt>
<trkpt lat="31.6154800" lon="34.9345500">
<ele>304.589996</ele>
<time>2023-11-22T07:44:03.313Z</time>
</trkpt>
<trkpt lat="31.6154500" lon="34.9348800">
<ele>304.559998</ele>
<time>2023-11-22T07:44:03.313Z</time>
</trkpt>
<trkpt lat="31.6149300" lon="34.9372700">
<ele>293.639984</ele>
<time>2023-11-22T07:44:03.313Z</time>
</trkpt>
<trkpt lat="31.6149000" lon="34.9374700">
<ele>295.410004</ele>
<time>2023-11-22T07:44:03.313Z</time>
</trkpt>
<trkpt lat="31.6148400" lon="34.9376000">
<ele>295.709991</ele>
<time>2023-11-22T07:44:03.313Z</time>
</trkpt>
<trkpt lat="31.6147700" lon="34.9379300">
<ele>299.070007</ele>
<time>2023-11-22T07:44:03.313Z</time>
</trkpt>
<trkpt lat="31.6147300" lon="34.9381600">
<ele>302.110016</ele>
<time>2023-11-22T07:44:03.313Z</time>
</trkpt>
<trkpt lat="31.6147200" lon="34.9384200">
<ele>306.209991</ele>
<time>2023-11-22T07:44:03.313Z</time>
</trkpt>
<trkpt lat="31.6147100" lon="34.9390300">
<ele>314.020020</ele>
<time>2023-11-22T07:44:03.313Z</time>
</trkpt>
<trkpt lat="31.6147200" lon="34.9392800">
<ele>314.499969</ele>
<time>2023-11-22T07:44:03.313Z</time>
</trkpt>
<trkpt lat="31.6147500" lon="34.9394200">
<ele>315.209991</ele>
<time>2023-11-22T07:44:03.313Z</time>
</trkpt>
<trkpt lat="31.6149000" lon="34.9398600">
<ele>318.130005</ele>
<time>2023-11-22T07:44:03.313Z</time>
</trkpt>
<trkpt lat="31.6149800" lon="34.9402800">
<ele>317.529999</ele>
<time>2023-11-22T07:44:03.313Z</time>
</trkpt>
<trkpt lat="31.6150400" lon="34.9405100">
<ele>314.159973</ele>
<time>2023-11-22T07:44:03.313Z</time>
</trkpt>
<trkpt lat="31.6151700" lon="34.9408800">
<ele>312.839996</ele>
<time>2023-11-22T07:44:03.313Z</time>
</trkpt>
<trkpt lat="31.6151900" lon="34.9409600">
<ele>313.049988</ele>
<time>2023-11-22T07:44:03.313Z</time>
</trkpt>
<trkpt lat="31.6152400" lon="34.9411300">
<ele>313.590027</ele>
<time>2023-11-22T07:44:03.313Z</time>
</trkpt>
<trkpt lat="31.6152500" lon="34.9412500">
<ele>313.699982</ele>
<time>2023-11-22T07:44:03.313Z</time>
</trkpt>
<trkpt lat="31.6152900" lon="34.9414500">
<ele>314.629974</ele>
<time>2023-11-22T07:44:03.313Z</time>
</trkpt>
<trkpt lat="31.6153000" lon="34.9415800">
<ele>315.609985</ele>
<time>2023-11-22T07:44:03.313Z</time>
</trkpt>
<trkpt lat="31.6153200" lon="34.9417400">
<ele>316.949982</ele>
<time>2023-11-22T07:44:03.313Z</time>
</trkpt>
<trkpt lat="31.6153800" lon="34.9419400">
<ele>319.790009</ele>
<time>2023-11-22T07:44:03.313Z</time>
</trkpt>
<trkpt lat="31.6154200" lon="34.9420900">
<ele>321.359985</ele>
<time>2023-11-22T07:44:03.313Z</time>
</trkpt>
<trkpt lat="31.6155300" lon="34.9423200">
<ele>325.299988</ele>
<time>2023-11-22T07:44:03.313Z</time>
</trkpt>
<trkpt lat="31.6156000" lon="34.9425600">
<ele>327.250031</ele>
<time>2023-11-22T07:44:03.313Z</time>
</trkpt>
<trkpt lat="31.6157500" lon="34.9429100">
<ele>332.239990</ele>
<time>2023-11-22T07:44:03.314Z</time>
</trkpt>
<trkpt lat="31.6157800" lon="34.9430200">
<ele>333.710022</ele>
<time>2023-11-22T07:44:03.314Z</time>
</trkpt>
<trkpt lat="31.6158900" lon="34.9432500">
<ele>331.989990</ele>
<time>2023-11-22T07:44:03.314Z</time>
</trkpt>
<trkpt lat="31.6159400" lon="34.9434000">
<ele>329.529999</ele>
<time>2023-11-22T07:44:03.314Z</time>
</trkpt>
<trkpt lat="31.6160100" lon="34.9434900">
<ele>327.809967</ele>
<time>2023-11-22T07:44:03.314Z</time>
</trkpt>
<trkpt lat="31.6160600" lon="34.9435900">
<ele>325.399994</ele>
<time>2023-11-22T07:44:03.314Z</time>
</trkpt>
<trkpt lat="31.6160700" lon="34.9436600">
<ele>323.700012</ele>
<time>2023-11-22T07:44:03.314Z</time>
</trkpt>
<trkpt lat="31.6160700" lon="34.9441500">
<ele>311.859985</ele>
<time>2023-11-22T07:44:03.314Z</time>
</trkpt>
<trkpt lat="31.6160700" lon="34.9442600">
<ele>312.070007</ele>
<time>2023-11-22T07:44:03.314Z</time>
</trkpt>
<trkpt lat="31.6160100" lon="34.9444700">
<ele>314.069977</ele>
<time>2023-11-22T07:44:03.314Z</time>
</trkpt>
<trkpt lat="31.6159000" lon="34.9447700">
<ele>315.579987</ele>
<time>2023-11-22T07:44:03.314Z</time>
</trkpt>
<trkpt lat="31.6158300" lon="34.9449400">
<ele>316.880005</ele>
<time>2023-11-22T07:44:03.314Z</time>
</trkpt>
<trkpt lat="31.6157000" lon="34.9455900">
<ele>318.220032</ele>
<time>2023-11-22T07:44:03.314Z</time>
</trkpt>
<trkpt lat="31.6156200" lon="34.9461400">
<ele>315.619995</ele>
<time>2023-11-22T07:44:03.314Z</time>
</trkpt>
<trkpt lat="31.6156000" lon="34.9462100">
<ele>315.119995</ele>
<time>2023-11-22T07:44:03.314Z</time>
</trkpt>
<trkpt lat="31.6155300" lon="34.9463500">
<ele>313.709991</ele>
<time>2023-11-22T07:44:03.314Z</time>
</trkpt>
<trkpt lat="31.6155100" lon="34.9464600">
<ele>314.020020</ele>
<time>2023-11-22T07:44:03.314Z</time>
</trkpt>
<trkpt lat="31.6154900" lon="34.9467600">
<ele>315.630005</ele>
<time>2023-11-22T07:44:03.314Z</time>
</trkpt>
<trkpt lat="31.6154800" lon="34.9470200">
<ele>316.179993</ele>
<time>2023-11-22T07:44:03.314Z</time>
</trkpt>
<trkpt lat="31.6154700" lon="34.9472200">
<ele>316.080017</ele>
<time>2023-11-22T07:44:03.314Z</time>
</trkpt>
<trkpt lat="31.6153500" lon="34.9477500">
<ele>318.160004</ele>
<time>2023-11-22T07:44:03.314Z</time>
</trkpt>
<trkpt lat="31.6152200" lon="34.9480100">
<ele>317.989990</ele>
<time>2023-11-22T07:44:03.314Z</time>
</trkpt>
<trkpt lat="31.6145100" lon="34.9487600">
<ele>315.139984</ele>
<time>2023-11-22T07:44:03.314Z</time>
</trkpt>
<trkpt lat="31.6144200" lon="34.9487900">
<ele>314.410004</ele>
<time>2023-11-22T07:44:03.314Z</time>
</trkpt>
<trkpt lat="31.6142100" lon="34.9490200">
<ele>314.230011</ele>
<time>2023-11-22T07:44:03.314Z</time>
</trkpt>
<trkpt lat="31.6139500" lon="34.9491900">
<ele>312.679993</ele>
<time>2023-11-22T07:44:03.314Z</time>
</trkpt>
<trkpt lat="31.6138700" lon="34.9492600">
<ele>312.470001</ele>
<time>2023-11-22T07:44:03.315Z</time>
</trkpt>
<trkpt lat="31.6138000" lon="34.9494000">
<ele>312.720001</ele>
<time>2023-11-22T07:44:03.315Z</time>
</trkpt>
<trkpt lat="31.6137600" lon="34.9494700">
<ele>313.029999</ele>
<time>2023-11-22T07:44:03.315Z</time>
</trkpt>
<trkpt lat="31.6137500" lon="34.9495900">
<ele>314.859985</ele>
<time>2023-11-22T07:44:03.315Z</time>
</trkpt>
<trkpt lat="31.6136700" lon="34.9497700">
<ele>316.379974</ele>
<time>2023-11-22T07:44:03.315Z</time>
</trkpt>
<trkpt lat="31.6136300" lon="34.9498800">
<ele>317.889984</ele>
<time>2023-11-22T07:44:03.315Z</time>
</trkpt>
<trkpt lat="31.6134200" lon="34.9503000">
<ele>319.169983</ele>
<time>2023-11-22T07:44:03.315Z</time>
</trkpt>
<trkpt lat="31.6133400" lon="34.9505200">
<ele>320.480011</ele>
<time>2023-11-22T07:44:03.315Z</time>
</trkpt>
<trkpt lat="31.6132400" lon="34.9509400">
<ele>325.059998</ele>
<time>2023-11-22T07:44:03.315Z</time>
</trkpt>
<trkpt lat="31.6130700" lon="34.9514200">
<ele>330.379974</ele>
<time>2023-11-22T07:44:03.315Z</time>
</trkpt>
<trkpt lat="31.6129100" lon="34.9516400">
<ele>327.989990</ele>
<time>2023-11-22T07:44:03.315Z</time>
</trkpt>
<trkpt lat="31.6127900" lon="34.9517100">
<ele>325.779999</ele>
<time>2023-11-22T07:44:03.315Z</time>
</trkpt>
<trkpt lat="31.6126700" lon="34.9519100">
<ele>324.619995</ele>
<time>2023-11-22T07:44:03.315Z</time>
</trkpt>
<trkpt lat="31.6124700" lon="34.9524700">
<ele>325.459991</ele>
<time>2023-11-22T07:44:03.315Z</time>
</trkpt>
<trkpt lat="31.6124600" lon="34.9527300">
<ele>327.859985</ele>
<time>2023-11-22T07:44:03.315Z</time>
</trkpt>
<trkpt lat="31.6124600" lon="34.9528800">
<ele>328.539978</ele>
<time>2023-11-22T07:44:03.315Z</time>
</trkpt>
<trkpt lat="31.6124500" lon="34.9529600">
<ele>328.519989</ele>
<time>2023-11-22T07:44:03.315Z</time>
</trkpt>
<trkpt lat="31.6124400" lon="34.9530600">
<ele>328.529999</ele>
<time>2023-11-22T07:44:03.315Z</time>
</trkpt>
<trkpt lat="31.6123000" lon="34.9533700">
<ele>326.619995</ele>
<time>2023-11-22T07:44:03.315Z</time>
</trkpt>
<trkpt lat="31.6122300" lon="34.9536200">
<ele>325.289978</ele>
<time>2023-11-22T07:44:03.315Z</time>
</trkpt>
<trkpt lat="31.6122200" lon="34.9540400">
<ele>327.550018</ele>
<time>2023-11-22T07:44:03.315Z</time>
</trkpt>
<trkpt lat="31.6120400" lon="34.9537800">
<ele>325.049988</ele>
<time>2023-11-22T07:44:03.315Z</time>
</trkpt>
<trkpt lat="31.6119000" lon="34.9537300">
<ele>323.229980</ele>
<time>2023-11-22T07:44:03.315Z</time>
</trkpt>
<trkpt lat="31.6117900" lon="34.9537400">
<ele>322.190002</ele>
<time>2023-11-22T07:44:03.315Z</time>
</trkpt>
<trkpt lat="31.6115600" lon="34.9537400">
<ele>318.430023</ele>
<time>2023-11-22T07:44:03.315Z</time>
</trkpt>
<trkpt lat="31.6115500" lon="34.9538100">
<ele>318.680023</ele>
<time>2023-11-22T07:44:03.315Z</time>
</trkpt>
<trkpt lat="31.6114500" lon="34.9539100">
<ele>316.169983</ele>
<time>2023-11-22T07:44:03.315Z</time>
</trkpt>
<trkpt lat="31.6098600" lon="34.9558700">
<ele>321.529999</ele>
<time>2023-11-22T07:44:03.316Z</time>
</trkpt>
<trkpt lat="31.6098500" lon="34.9563300">
<ele>328.860016</ele>
<time>2023-11-22T07:44:03.316Z</time>
</trkpt>
<trkpt lat="31.6098000" lon="34.9571600">
<ele>335.790009</ele>
<time>2023-11-22T07:44:03.316Z</time>
</trkpt>
<trkpt lat="31.6093000" lon="34.9580100">
<ele>332.380005</ele>
<time>2023-11-22T07:44:03.316Z</time>
</trkpt>
<trkpt lat="31.6087500" lon="34.9585900">
<ele>329.660004</ele>
<time>2023-11-22T07:44:03.316Z</time>
</trkpt>
<trkpt lat="31.6081900" lon="34.9589300">
<ele>326.500000</ele>
<time>2023-11-22T07:44:03.316Z</time>
</trkpt>
<trkpt lat="31.6078900" lon="34.9595000">
<ele>328.809998</ele>
<time>2023-11-22T07:44:03.316Z</time>
</trkpt>
<trkpt lat="31.6077500" lon="34.9601000">
<ele>334.429993</ele>
<time>2023-11-22T07:44:03.316Z</time>
</trkpt>
<trkpt lat="31.6077500" lon="34.9628500">
<ele>338.089996</ele>
<time>2023-11-22T07:44:03.316Z</time>
</trkpt>
<trkpt lat="31.6076300" lon="34.9639300">
<ele>340.399994</ele>
<time>2023-11-22T07:44:03.316Z</time>
</trkpt>
<trkpt lat="31.6076200" lon="34.9640400">
<ele>340.300018</ele>
<time>2023-11-22T07:44:03.316Z</time>
</trkpt>
<trkpt lat="31.6076100" lon="34.9644000">
<ele>340.190002</ele>
<time>2023-11-22T07:44:03.316Z</time>
</trkpt>
<trkpt lat="31.6078100" lon="34.9650900">
<ele>344.880005</ele>
<time>2023-11-22T07:44:03.316Z</time>
</trkpt>
<trkpt lat="31.6090900" lon="34.9666300">
<ele>353.539978</ele>
<time>2023-11-22T07:44:03.316Z</time>
</trkpt>
<trkpt lat="31.6102200" lon="34.9677400">
<ele>353.010010</ele>
<time>2023-11-22T07:44:03.316Z</time>
</trkpt>
<trkpt lat="31.6103100" lon="34.9678400">
<ele>352.029999</ele>
<time>2023-11-22T07:44:03.316Z</time>
</trkpt>
<trkpt lat="31.6109400" lon="34.9680400">
<ele>355.989990</ele>
<time>2023-11-22T07:44:03.317Z</time>
</trkpt>
<trkpt lat="31.6111900" lon="34.9680300">
<ele>360.649994</ele>
<time>2023-11-22T07:44:03.317Z</time>
</trkpt>
<trkpt lat="31.6119900" lon="34.9688100">
<ele>366.070007</ele>
<time>2023-11-22T07:44:03.317Z</time>
</trkpt>
<trkpt lat="31.6123200" lon="34.9690700">
<ele>368.009979</ele>
<time>2023-11-22T07:44:03.317Z</time>
</trkpt>
<trkpt lat="31.6127000" lon="34.9691900">
<ele>369.769989</ele>
<time>2023-11-22T07:44:03.317Z</time>
</trkpt>
<trkpt lat="31.6128700" lon="34.9693300">
<ele>372.769989</ele>
<time>2023-11-22T07:44:03.317Z</time>
</trkpt>
<trkpt lat="31.6130100" lon="34.9695800">
<ele>372.660004</ele>
<time>2023-11-22T07:44:03.317Z</time>
</trkpt>
<trkpt lat="31.6131000" lon="34.9696800">
<ele>372.100006</ele>
<time>2023-11-22T07:44:03.317Z</time>
</trkpt>
<trkpt lat="31.6133200" lon="34.9698700">
<ele>367.610016</ele>
<time>2023-11-22T07:44:03.317Z</time>
</trkpt>
<trkpt lat="31.6134700" lon="34.9699700">
<ele>368.040009</ele>
<time>2023-11-22T07:44:03.317Z</time>
</trkpt>
<trkpt lat="31.6136000" lon="34.9700300">
<ele>368.919983</ele>
<time>2023-11-22T07:44:03.317Z</time>
</trkpt>
<trkpt lat="31.6138800" lon="34.9702300">
<ele>366.899994</ele>
<time>2023-11-22T07:44:03.317Z</time>
</trkpt>
<trkpt lat="31.6139300" lon="34.9702500">
<ele>366.800018</ele>
<time>2023-11-22T07:44:03.317Z</time>
</trkpt>
<trkpt lat="31.6140600" lon="34.9702500">
<ele>366.469971</ele>
<time>2023-11-22T07:44:03.317Z</time>
</trkpt>
<trkpt lat="31.6143300" lon="34.9701900">
<ele>366.450012</ele>
<time>2023-11-22T07:44:03.317Z</time>
</trkpt>
<trkpt lat="31.6143700" lon="34.9701700">
<ele>366.489990</ele>
<time>2023-11-22T07:44:03.317Z</time>
</trkpt>
<trkpt lat="31.6145600" lon="34.9701600">
<ele>366.420013</ele>
<time>2023-11-22T07:44:03.317Z</time>
</trkpt>
<trkpt lat="31.6149900" lon="34.9701500">
<ele>367.500000</ele>
<time>2023-11-22T07:44:03.317Z</time>
</trkpt>
<trkpt lat="31.6152700" lon="34.9701700">
<ele>372.039978</ele>
<time>2023-11-22T07:44:03.317Z</time>
</trkpt>
<trkpt lat="31.6154900" lon="34.9701700">
<ele>373.690002</ele>
<time>2023-11-22T07:44:03.317Z</time>
</trkpt>
<trkpt lat="31.6158900" lon="34.9702600">
<ele>375.079987</ele>
<time>2023-11-22T07:44:03.317Z</time>
</trkpt>
<trkpt lat="31.6160100" lon="34.9703100">
<ele>374.440002</ele>
<time>2023-11-22T07:44:03.317Z</time>
</trkpt>
<trkpt lat="31.6162600" lon="34.9703500">
<ele>375.190002</ele>
<time>2023-11-22T07:44:03.317Z</time>
</trkpt>
<trkpt lat="31.6165700" lon="34.9703600">
<ele>376.839996</ele>
<time>2023-11-22T07:44:03.318Z</time>
</trkpt>
<trkpt lat="31.6168500" lon="34.9703800">
<ele>378.690002</ele>
<time>2023-11-22T07:44:03.318Z</time>
</trkpt>
<trkpt lat="31.6169300" lon="34.9704100">
<ele>379.369995</ele>
<time>2023-11-22T07:44:03.318Z</time>
</trkpt>
<trkpt lat="31.6172200" lon="34.9704300">
<ele>377.469971</ele>
<time>2023-11-22T07:44:03.318Z</time>
</trkpt>
<trkpt lat="31.6174400" lon="34.9704200">
<ele>375.559998</ele>
<time>2023-11-22T07:44:03.318Z</time>
</trkpt>
<trkpt lat="31.6175800" lon="34.9704300">
<ele>374.680023</ele>
<time>2023-11-22T07:44:03.318Z</time>
</trkpt>
<trkpt lat="31.6177700" lon="34.9703700">
<ele>373.040009</ele>
<time>2023-11-22T07:44:03.318Z</time>
</trkpt>
<trkpt lat="31.6180200" lon="34.9701900">
<ele>372.089996</ele>
<time>2023-11-22T07:44:03.318Z</time>
</trkpt>
<trkpt lat="31.6183200" lon="34.9699900">
<ele>376.850006</ele>
<time>2023-11-22T07:44:03.318Z</time>
</trkpt>
<trkpt lat="31.6184900" lon="34.9698400">
<ele>381.400024</ele>
<time>2023-11-22T07:44:03.318Z</time>
</trkpt>
<trkpt lat="31.6186800" lon="34.9695900">
<ele>385.179993</ele>
<time>2023-11-22T07:44:03.318Z</time>
</trkpt>
<trkpt lat="31.6187600" lon="34.9694500">
<ele>387.029999</ele>
<time>2023-11-22T07:44:03.318Z</time>
</trkpt>
<trkpt lat="31.6187900" lon="34.9692500">
<ele>386.679993</ele>
<time>2023-11-22T07:44:03.318Z</time>
</trkpt>
<trkpt lat="31.6187900" lon="34.9690400">
<ele>385.970001</ele>
<time>2023-11-22T07:44:03.318Z</time>
</trkpt>
<trkpt lat="31.6188200" lon="34.9689900">
<ele>385.359985</ele>
<time>2023-11-22T07:44:03.318Z</time>
</trkpt>
<trkpt lat="31.6194100" lon="34.9684600">
<ele>388.410004</ele>
<time>2023-11-22T07:44:03.318Z</time>
</trkpt>
<trkpt lat="31.6195200" lon="34.9683100">
<ele>388.080017</ele>
<time>2023-11-22T07:44:03.318Z</time>
</trkpt>
<trkpt lat="31.6198500" lon="34.9680400">
<ele>392.850006</ele>
<time>2023-11-22T07:44:03.318Z</time>
</trkpt>
<trkpt lat="31.6201100" lon="34.9676900">
<ele>402.580017</ele>
<time>2023-11-22T07:44:03.318Z</time>
</trkpt>
<trkpt lat="31.6203500" lon="34.9673100">
<ele>407.439972</ele>
<time>2023-11-22T07:44:03.318Z</time>
</trkpt>
<trkpt lat="31.6206600" lon="34.9676700">
<ele>407.789978</ele>
<time>2023-11-22T07:44:03.318Z</time>
</trkpt>
<trkpt lat="31.6207800" lon="34.9678000">
<ele>408.970001</ele>
<time>2023-11-22T07:44:03.318Z</time>
</trkpt>
<trkpt lat="31.6209400" lon="34.9682000">
<ele>409.409973</ele>
<time>2023-11-22T07:44:03.318Z</time>
</trkpt>
<trkpt lat="31.6209500" lon="34.9683500">
<ele>409.029999</ele>
<time>2023-11-22T07:44:03.318Z</time>
</trkpt>
<trkpt lat="31.6209500" lon="34.9684600">
<ele>409.189972</ele>
<time>2023-11-22T07:44:03.318Z</time>
</trkpt>
<trkpt lat="31.6209300" lon="34.9686400">
<ele>409.309998</ele>
<time>2023-11-22T07:44:03.318Z</time>
</trkpt>
<trkpt lat="31.6208800" lon="34.9687400">
<ele>409.089996</ele>
<time>2023-11-22T07:44:03.319Z</time>
</trkpt>
<trkpt lat="31.6208200" lon="34.9690100">
<ele>409.100006</ele>
<time>2023-11-22T07:44:03.319Z</time>
</trkpt>
<trkpt lat="31.6207300" lon="34.9692000">
<ele>409.459991</ele>
<time>2023-11-22T07:44:03.319Z</time>
</trkpt>
<trkpt lat="31.6206400" lon="34.9695700">
<ele>411.360016</ele>
<time>2023-11-22T07:44:03.319Z</time>
</trkpt>
<trkpt lat="31.6206300" lon="34.9697500">
<ele>411.960022</ele>
<time>2023-11-22T07:44:03.319Z</time>
</trkpt>
<trkpt lat="31.6206300" lon="34.9700400">
<ele>414.540009</ele>
<time>2023-11-22T07:44:03.319Z</time>
</trkpt>
<trkpt lat="31.6206400" lon="34.9702800">
<ele>417.709991</ele>
<time>2023-11-22T07:44:03.319Z</time>
</trkpt>
<trkpt lat="31.6206600" lon="34.9703400">
<ele>417.989990</ele>
<time>2023-11-22T07:44:03.319Z</time>
</trkpt>
<trkpt lat="31.6208100" lon="34.9705800">
<ele>417.889984</ele>
<time>2023-11-22T07:44:03.319Z</time>
</trkpt>
<trkpt lat="31.6212000" lon="34.9709600">
<ele>416.380005</ele>
<time>2023-11-22T07:44:03.319Z</time>
</trkpt>
<trkpt lat="31.6214600" lon="34.9712500">
<ele>418.009979</ele>
<time>2023-11-22T07:44:03.319Z</time>
</trkpt>
<trkpt lat="31.6215000" lon="34.9713200">
<ele>418.550018</ele>
<time>2023-11-22T07:44:03.319Z</time>
</trkpt>
<trkpt lat="31.6215400" lon="34.9714900">
<ele>418.919983</ele>
<time>2023-11-22T07:44:03.319Z</time>
</trkpt>
<trkpt lat="31.6221500" lon="34.9719600">
<ele>420.149994</ele>
<time>2023-11-22T07:44:03.319Z</time>
</trkpt>
<trkpt lat="31.6224700" lon="34.9723400">
<ele>417.109985</ele>
<time>2023-11-22T07:44:03.319Z</time>
</trkpt>
<trkpt lat="31.6225600" lon="34.9724900">
<ele>415.279999</ele>
<time>2023-11-22T07:44:03.319Z</time>
</trkpt>
<trkpt lat="31.6229100" lon="34.9727600">
<ele>405.149994</ele>
<time>2023-11-22T07:44:03.319Z</time>
</trkpt>
<trkpt lat="31.6232700" lon="34.9729400">
<ele>399.229980</ele>
<time>2023-11-22T07:44:03.319Z</time>
</trkpt>
<trkpt lat="31.6235300" lon="34.9730200">
<ele>396.529999</ele>
<time>2023-11-22T07:44:03.319Z</time>
</trkpt>
<trkpt lat="31.6235400" lon="34.9732900">
<ele>396.300018</ele>
<time>2023-11-22T07:44:03.320Z</time>
</trkpt>
<trkpt lat="31.6235300" lon="34.9736000">
<ele>394.489990</ele>
<time>2023-11-22T07:44:03.320Z</time>
</trkpt>
<trkpt lat="31.6235300" lon="34.9736900">
<ele>394.209991</ele>
<time>2023-11-22T07:44:03.320Z</time>
</trkpt>
<trkpt lat="31.6234900" lon="34.9738000">
<ele>393.739990</ele>
<time>2023-11-22T07:44:03.320Z</time>
</trkpt>
<trkpt lat="31.6234700" lon="34.9738300">
<ele>393.600006</ele>
<time>2023-11-22T07:44:03.320Z</time>
</trkpt>
<trkpt lat="31.6233700" lon="34.9739800">
<ele>392.759979</ele>
<time>2023-11-22T07:44:03.320Z</time>
</trkpt>
<trkpt lat="31.6233000" lon="34.9741800">
<ele>392.480011</ele>
<time>2023-11-22T07:44:03.320Z</time>
</trkpt>
<trkpt lat="31.6232900" lon="34.9743800">
<ele>392.620026</ele>
<time>2023-11-22T07:44:03.320Z</time>
</trkpt>
<trkpt lat="31.6233000" lon="34.9745600">
<ele>392.109985</ele>
<time>2023-11-22T07:44:03.320Z</time>
</trkpt>
<trkpt lat="31.6233400" lon="34.9747000">
<ele>391.059998</ele>
<time>2023-11-22T07:44:03.320Z</time>
</trkpt>
<trkpt lat="31.6236100" lon="34.9753300">
<ele>384.830017</ele>
<time>2023-11-22T07:44:03.320Z</time>
</trkpt>
<trkpt lat="31.6236500" lon="34.9754700">
<ele>383.700012</ele>
<time>2023-11-22T07:44:03.320Z</time>
</trkpt>
<trkpt lat="31.6237500" lon="34.9756300">
<ele>381.730011</ele>
<time>2023-11-22T07:44:03.320Z</time>
</trkpt>
<trkpt lat="31.6239000" lon="34.9757400">
<ele>379.180023</ele>
<time>2023-11-22T07:44:03.320Z</time>
</trkpt>
<trkpt lat="31.6241800" lon="34.9758000">
<ele>375.039978</ele>
<time>2023-11-22T07:44:03.320Z</time>
</trkpt>
<trkpt lat="31.6243000" lon="34.9758100">
<ele>374.399994</ele>
<time>2023-11-22T07:44:03.320Z</time>
</trkpt>
<trkpt lat="31.6247500" lon="34.9758100">
<ele>367.079987</ele>
<time>2023-11-22T07:44:03.320Z</time>
</trkpt>
<trkpt lat="31.6267300" lon="34.9758800">
<ele>393.040009</ele>
<time>2023-11-22T07:44:03.320Z</time>
</trkpt>
<trkpt lat="31.6268200" lon="34.9759000">
<ele>398.130005</ele>
<time>2023-11-22T07:44:03.320Z</time>
</trkpt>
<trkpt lat="31.6270000" lon="34.9759500">
<ele>405.200012</ele>
<time>2023-11-22T07:44:03.320Z</time>
</trkpt>
<trkpt lat="31.6277200" lon="34.9763600">
<ele>406.140015</ele>
<time>2023-11-22T07:44:03.320Z</time>
</trkpt>
<trkpt lat="31.6283300" lon="34.9767800">
<ele>401.279999</ele>
<time>2023-11-22T07:44:03.320Z</time>
</trkpt>
<trkpt lat="31.6284400" lon="34.9769200">
<ele>398.990021</ele>
<time>2023-11-22T07:44:03.320Z</time>
</trkpt>
<trkpt lat="31.6285100" lon="34.9770300">
<ele>397.979980</ele>
<time>2023-11-22T07:44:03.320Z</time>
</trkpt>
<trkpt lat="31.6287700" lon="34.9776000">
<ele>396.589996</ele>
<time>2023-11-22T07:44:03.320Z</time>
</trkpt>
<trkpt lat="31.6288200" lon="34.9776900">
<ele>396.529999</ele>
<time>2023-11-22T07:44:03.321Z</time>
</trkpt>
<trkpt lat="31.6288600" lon="34.9777200">
<ele>396.080017</ele>
<time>2023-11-22T07:44:03.321Z</time>
</trkpt>
<trkpt lat="31.6289300" lon="34.9777300">
<ele>395.779999</ele>
<time>2023-11-22T07:44:03.321Z</time>
</trkpt>
<trkpt lat="31.6290700" lon="34.9777300">
<ele>396.200012</ele>
<time>2023-11-22T07:44:03.321Z</time>
</trkpt>
<trkpt lat="31.6291800" lon="34.9777100">
<ele>396.399994</ele>
<time>2023-11-22T07:44:03.321Z</time>
</trkpt>
<trkpt lat="31.6294200" lon="34.9775700">
<ele>396.809998</ele>
<time>2023-11-22T07:44:03.321Z</time>
</trkpt>
<trkpt lat="31.6297000" lon="34.9774600">
<ele>397.179993</ele>
<time>2023-11-22T07:44:03.321Z</time>
</trkpt>
<trkpt lat="31.6301200" lon="34.9774000">
<ele>402.839996</ele>
<time>2023-11-22T07:44:03.321Z</time>
</trkpt>
<trkpt lat="31.6301900" lon="34.9773400">
<ele>403.049988</ele>
<time>2023-11-22T07:44:03.321Z</time>
</trkpt>
<trkpt lat="31.6302600" lon="34.9771700">
<ele>402.880005</ele>
<time>2023-11-22T07:44:03.321Z</time>
</trkpt>
<trkpt lat="31.6303000" lon="34.9769600">
<ele>402.059998</ele>
<time>2023-11-22T07:44:03.321Z</time>
</trkpt>
<trkpt lat="31.6303800" lon="34.9769300">
<ele>402.160004</ele>
<time>2023-11-22T07:44:03.321Z</time>
</trkpt>
<trkpt lat="31.6308900" lon="34.9769300">
<ele>406.459991</ele>
<time>2023-11-22T07:44:03.321Z</time>
</trkpt>
<trkpt lat="31.6309800" lon="34.9769200">
<ele>407.139984</ele>
<time>2023-11-22T07:44:03.321Z</time>
</trkpt>
<trkpt lat="31.6314700" lon="34.9769200">
<ele>412.059998</ele>
<time>2023-11-22T07:44:03.321Z</time>
</trkpt>
<trkpt lat="31.6316900" lon="34.9769700">
<ele>411.589996</ele>
<time>2023-11-22T07:44:03.321Z</time>
</trkpt>
<trkpt lat="31.6318700" lon="34.9770000">
<ele>409.839996</ele>
<time>2023-11-22T07:44:03.321Z</time>
</trkpt>
<trkpt lat="31.6320900" lon="34.9770800">
<ele>408.700012</ele>
<time>2023-11-22T07:44:03.321Z</time>
</trkpt>
<trkpt lat="31.6322000" lon="34.9770900">
<ele>408.169983</ele>
<time>2023-11-22T07:44:03.321Z</time>
</trkpt>
<trkpt lat="31.6326500" lon="34.9770800">
<ele>399.119995</ele>
<time>2023-11-22T07:44:03.321Z</time>
</trkpt>
<trkpt lat="31.6328000" lon="34.9770200">
<ele>395.089996</ele>
<time>2023-11-22T07:44:03.321Z</time>
</trkpt>
<trkpt lat="31.6334600" lon="34.9769100">
<ele>393.000000</ele>
<time>2023-11-22T07:44:03.321Z</time>
</trkpt>
<trkpt lat="31.6339100" lon="34.9768200">
<ele>391.460022</ele>
<time>2023-11-22T07:44:03.321Z</time>
</trkpt>
<trkpt lat="31.6343500" lon="34.9766900">
<ele>388.660004</ele>
<time>2023-11-22T07:44:03.321Z</time>
</trkpt>
<trkpt lat="31.6349400" lon="34.9763100">
<ele>383.989990</ele>
<time>2023-11-22T07:44:03.322Z</time>
</trkpt>
<trkpt lat="31.6355900" lon="34.9760100">
<ele>382.290009</ele>
<time>2023-11-22T07:44:03.322Z</time>
</trkpt>
<trkpt lat="31.6359000" lon="34.9759600">
<ele>383.920013</ele>
<time>2023-11-22T07:44:03.322Z</time>
</trkpt>
<trkpt lat="31.6360300" lon="34.9759500">
<ele>383.519989</ele>
<time>2023-11-22T07:44:03.322Z</time>
</trkpt>
<trkpt lat="31.6361600" lon="34.9759700">
<ele>384.010010</ele>
<time>2023-11-22T07:44:03.322Z</time>
</trkpt>
<trkpt lat="31.6365000" lon="34.9763100">
<ele>390.839996</ele>
<time>2023-11-22T07:44:03.322Z</time>
</trkpt>
<trkpt lat="31.6368400" lon="34.9764900">
<ele>396.309998</ele>
<time>2023-11-22T07:44:03.322Z</time>
</trkpt>
<trkpt lat="31.6369600" lon="34.9765300">
<ele>397.619995</ele>
<time>2023-11-22T07:44:03.322Z</time>
</trkpt>
<trkpt lat="31.6372500" lon="34.9767100">
<ele>400.490021</ele>
<time>2023-11-22T07:44:03.322Z</time>
</trkpt>
<trkpt lat="31.6373000" lon="34.9767800">
<ele>399.810028</ele>
<time>2023-11-22T07:44:03.322Z</time>
</trkpt>
<trkpt lat="31.6375500" lon="34.9771800">
<ele>398.250000</ele>
<time>2023-11-22T07:44:03.322Z</time>
</trkpt>
<trkpt lat="31.6376300" lon="34.9774000">
<ele>397.729980</ele>
<time>2023-11-22T07:44:03.322Z</time>
</trkpt>
<trkpt lat="31.6376500" lon="34.9775000">
<ele>397.920013</ele>
<time>2023-11-22T07:44:03.322Z</time>
</trkpt>
<trkpt lat="31.6376600" lon="34.9776200">
<ele>398.959991</ele>
<time>2023-11-22T07:44:03.322Z</time>
</trkpt>
<trkpt lat="31.6376700" lon="34.9777000">
<ele>399.660004</ele>
<time>2023-11-22T07:44:03.322Z</time>
</trkpt>
<trkpt lat="31.6376800" lon="34.9779300">
<ele>401.260010</ele>
<time>2023-11-22T07:44:03.322Z</time>
</trkpt>
<trkpt lat="31.6376800" lon="34.9781600">
<ele>402.489990</ele>
<time>2023-11-22T07:44:03.322Z</time>
</trkpt>
<trkpt lat="31.6376400" lon="34.9786200">
<ele>403.570007</ele>
<time>2023-11-22T07:44:03.322Z</time>
</trkpt>
<trkpt lat="31.6376300" lon="34.9789700">
<ele>406.329987</ele>
<time>2023-11-22T07:44:03.322Z</time>
</trkpt>
<trkpt lat="31.6376700" lon="34.9795500">
<ele>411.679993</ele>
<time>2023-11-22T07:44:03.322Z</time>
</trkpt>
<trkpt lat="31.6376900" lon="34.9796200">
<ele>412.549988</ele>
<time>2023-11-22T07:44:03.322Z</time>
</trkpt>
<trkpt lat="31.6378200" lon="34.9797700">
<ele>415.630005</ele>
<time>2023-11-22T07:44:03.322Z</time>
</trkpt>
<trkpt lat="31.6380000" lon="34.9799200">
<ele>418.109985</ele>
<time>2023-11-22T07:44:03.322Z</time>
</trkpt>
<trkpt lat="31.6384200" lon="34.9801800">
<ele>420.520020</ele>
<time>2023-11-22T07:44:03.322Z</time>
</trkpt>
<trkpt lat="31.6388700" lon="34.9806200">
<ele>419.000000</ele>
<time>2023-11-22T07:44:03.322Z</time>
</trkpt>
<trkpt lat="31.6389000" lon="34.9809600">
<ele>419.440002</ele>
<time>2023-11-22T07:44:03.322Z</time>
</trkpt>
<trkpt lat="31.6389100" lon="34.9815300">
<ele>419.339996</ele>
<time>2023-11-22T07:44:03.322Z</time>
</trkpt>
<trkpt lat="31.6388600" lon="34.9824100">
<ele>417.720001</ele>
<time>2023-11-22T07:44:03.323Z</time>
</trkpt>
<trkpt lat="31.6388200" lon="34.9830300">
<ele>415.929993</ele>
<time>2023-11-22T07:44:03.323Z</time>
</trkpt>
<trkpt lat="31.6388200" lon="34.9831900">
<ele>415.640015</ele>
<time>2023-11-22T07:44:03.323Z</time>
</trkpt>
<trkpt lat="31.6388400" lon="34.9832900">
<ele>415.300018</ele>
<time>2023-11-22T07:44:03.323Z</time>
</trkpt>
<trkpt lat="31.6389300" lon="34.9833800">
<ele>414.610016</ele>
<time>2023-11-22T07:44:03.323Z</time>
</trkpt>
<trkpt lat="31.6390900" lon="34.9833900">
<ele>413.790009</ele>
<time>2023-11-22T07:44:03.323Z</time>
</trkpt>
<trkpt lat="31.6391900" lon="34.9833800">
<ele>413.279999</ele>
<time>2023-11-22T07:44:03.323Z</time>
</trkpt>
<trkpt lat="31.6394000" lon="34.9833000">
<ele>411.739990</ele>
<time>2023-11-22T07:44:03.323Z</time>
</trkpt>
<trkpt lat="31.6396000" lon="34.9830900">
<ele>408.429993</ele>
<time>2023-11-22T07:44:03.323Z</time>
</trkpt>
<trkpt lat="31.6397100" lon="34.9830000">
<ele>407.990021</ele>
<time>2023-11-22T07:44:03.323Z</time>
</trkpt>
<trkpt lat="31.6402900" lon="34.9827700">
<ele>410.829987</ele>
<time>2023-11-22T07:44:03.323Z</time>
</trkpt>
<trkpt lat="31.6403800" lon="34.9827600">
<ele>409.579987</ele>
<time>2023-11-22T07:44:03.323Z</time>
</trkpt>
<trkpt lat="31.6404900" lon="34.9827500">
<ele>408.100006</ele>
<time>2023-11-22T07:44:03.323Z</time>
</trkpt>
<trkpt lat="31.6409300" lon="34.9827800">
<ele>404.669983</ele>
<time>2023-11-22T07:44:03.323Z</time>
</trkpt>
<trkpt lat="31.6412100" lon="34.9828800">
<ele>405.080017</ele>
<time>2023-11-22T07:44:03.323Z</time>
</trkpt>
<trkpt lat="31.6415700" lon="34.9831000">
<ele>405.959991</ele>
<time>2023-11-22T07:44:03.323Z</time>
</trkpt>
<trkpt lat="31.6416900" lon="34.9831900">
<ele>405.720032</ele>
<time>2023-11-22T07:44:03.323Z</time>
</trkpt>
<trkpt lat="31.6417500" lon="34.9832700">
<ele>405.639984</ele>
<time>2023-11-22T07:44:03.323Z</time>
</trkpt>
<trkpt lat="31.6418100" lon="34.9834100">
<ele>405.320007</ele>
<time>2023-11-22T07:44:03.323Z</time>
</trkpt>
<trkpt lat="31.6418800" lon="34.9836800">
<ele>404.029999</ele>
<time>2023-11-22T07:44:03.323Z</time>
</trkpt>
<trkpt lat="31.6419000" lon="34.9839700">
<ele>402.190002</ele>
<time>2023-11-22T07:44:03.323Z</time>
</trkpt>
<trkpt lat="31.6419200" lon="34.9841100">
<ele>401.470001</ele>
<time>2023-11-22T07:44:03.323Z</time>
</trkpt>
<trkpt lat="31.6419800" lon="34.9841900">
<ele>402.250000</ele>
<time>2023-11-22T07:44:03.323Z</time>
</trkpt>
<trkpt lat="31.6420800" lon="34.9842000">
<ele>405.149994</ele>
<time>2023-11-22T07:44:03.323Z</time>
</trkpt>
<trkpt lat="31.6421700" lon="34.9841900">
<ele>407.609985</ele>
<time>2023-11-22T07:44:03.324Z</time>
</trkpt>
<trkpt lat="31.6423700" lon="34.9840300">
<ele>409.650024</ele>
<time>2023-11-22T07:44:03.324Z</time>
</trkpt>
<trkpt lat="31.6424900" lon="34.9839400">
<ele>410.410004</ele>
<time>2023-11-22T07:44:03.324Z</time>
</trkpt>
<trkpt lat="31.6427800" lon="34.9837800">
<ele>412.850006</ele>
<time>2023-11-22T07:44:03.324Z</time>
</trkpt>
<trkpt lat="31.6428300" lon="34.9837200">
<ele>412.850006</ele>
<time>2023-11-22T07:44:03.324Z</time>
</trkpt>
<trkpt lat="31.6428600" lon="34.9836800">
<ele>412.850006</ele>
<time>2023-11-22T07:44:03.324Z</time>
</trkpt>
<trkpt lat="31.6428800" lon="34.9836000">
<ele>412.339996</ele>
<time>2023-11-22T07:44:03.324Z</time>
</trkpt>
<trkpt lat="31.6429000" lon="34.9832200">
<ele>407.510010</ele>
<time>2023-11-22T07:44:03.324Z</time>
</trkpt>
<trkpt lat="31.6429300" lon="34.9831200">
<ele>406.150024</ele>
<time>2023-11-22T07:44:03.324Z</time>
</trkpt>
<trkpt lat="31.6430200" lon="34.9828900">
<ele>405.149994</ele>
<time>2023-11-22T07:44:03.324Z</time>
</trkpt>
<trkpt lat="31.6432000" lon="34.9827400">
<ele>406.350006</ele>
<time>2023-11-22T07:44:03.324Z</time>
</trkpt>
<trkpt lat="31.6433500" lon="34.9826800">
<ele>407.070007</ele>
<time>2023-11-22T07:44:03.324Z</time>
</trkpt>
<trkpt lat="31.6435000" lon="34.9826300">
<ele>407.959991</ele>
<time>2023-11-22T07:44:03.324Z</time>
</trkpt>
<trkpt lat="31.6439500" lon="34.9826000">
<ele>410.139984</ele>
<time>2023-11-22T07:44:03.324Z</time>
</trkpt>
<trkpt lat="31.6444200" lon="34.9826000">
<ele>405.379974</ele>
<time>2023-11-22T07:44:03.324Z</time>
</trkpt>
<trkpt lat="31.6447100" lon="34.9825900">
<ele>406.579987</ele>
<time>2023-11-22T07:44:03.324Z</time>
</trkpt>
<trkpt lat="31.6448800" lon="34.9826000">
<ele>406.239990</ele>
<time>2023-11-22T07:44:03.324Z</time>
</trkpt>
<trkpt lat="31.6450700" lon="34.9826000">
<ele>406.109985</ele>
<time>2023-11-22T07:44:03.324Z</time>
</trkpt>
<trkpt lat="31.6452600" lon="34.9825600">
<ele>405.989990</ele>
<time>2023-11-22T07:44:03.324Z</time>
</trkpt>
<trkpt lat="31.6454400" lon="34.9824000">
<ele>405.460022</ele>
<time>2023-11-22T07:44:03.324Z</time>
</trkpt>
<trkpt lat="31.6460000" lon="34.9816000">
<ele>403.369995</ele>
<time>2023-11-22T07:44:03.324Z</time>
</trkpt>
<trkpt lat="31.6463200" lon="34.9809200">
<ele>403.500000</ele>
<time>2023-11-22T07:44:03.324Z</time>
</trkpt>
<trkpt lat="31.6464300" lon="34.9807600">
<ele>403.779999</ele>
<time>2023-11-22T07:44:03.324Z</time>
</trkpt>
<trkpt lat="31.6465000" lon="34.9807200">
<ele>403.759979</ele>
<time>2023-11-22T07:44:03.324Z</time>
</trkpt>
<trkpt lat="31.6466000" lon="34.9806900">
<ele>403.880005</ele>
<time>2023-11-22T07:44:03.324Z</time>
</trkpt>
<trkpt lat="31.6467100" lon="34.9806900">
<ele>404.000000</ele>
<time>2023-11-22T07:44:03.324Z</time>
</trkpt>
<trkpt lat="31.6467900" lon="34.9807200">
<ele>404.000000</ele>
<time>2023-11-22T07:44:03.324Z</time>
</trkpt>
<trkpt lat="31.6469200" lon="34.9809600">
<ele>403.130005</ele>
<time>2023-11-22T07:44:03.325Z</time>
</trkpt>
<trkpt lat="31.6471100" lon="34.9815500">
<ele>396.860016</ele>
<time>2023-11-22T07:44:03.325Z</time>
</trkpt>
<trkpt lat="31.6471700" lon="34.9817000">
<ele>394.959991</ele>
<time>2023-11-22T07:44:03.325Z</time>
</trkpt>
<trkpt lat="31.6472800" lon="34.9817500">
<ele>393.420013</ele>
<time>2023-11-22T07:44:03.325Z</time>
</trkpt>
<trkpt lat="31.6474100" lon="34.9817500">
<ele>392.109985</ele>
<time>2023-11-22T07:44:03.325Z</time>
</trkpt>
<trkpt lat="31.6475300" lon="34.9817200">
<ele>391.269989</ele>
<time>2023-11-22T07:44:03.325Z</time>
</trkpt>
<trkpt lat="31.6477700" lon="34.9815300">
<ele>389.589996</ele>
<time>2023-11-22T07:44:03.325Z</time>
</trkpt>
<trkpt lat="31.6480200" lon="34.9814000">
<ele>384.409973</ele>
<time>2023-11-22T07:44:03.325Z</time>
</trkpt>
<trkpt lat="31.6483000" lon="34.9813500">
<ele>383.000000</ele>
<time>2023-11-22T07:44:03.325Z</time>
</trkpt>
<trkpt lat="31.6486200" lon="34.9813400">
<ele>385.680023</ele>
<time>2023-11-22T07:44:03.325Z</time>
</trkpt>
<trkpt lat="31.6494600" lon="34.9813400">
<ele>376.990021</ele>
<time>2023-11-22T07:44:03.325Z</time>
</trkpt>
<trkpt lat="31.6496100" lon="34.9813500">
<ele>378.649994</ele>
<time>2023-11-22T07:44:03.325Z</time>
</trkpt>
<trkpt lat="31.6497700" lon="34.9814700">
<ele>379.540009</ele>
<time>2023-11-22T07:44:03.325Z</time>
</trkpt>
<trkpt lat="31.6499600" lon="34.9817000">
<ele>377.380005</ele>
<time>2023-11-22T07:44:03.325Z</time>
</trkpt>
<trkpt lat="31.6500300" lon="34.9818700">
<ele>374.420013</ele>
<time>2023-11-22T07:44:03.325Z</time>
</trkpt>
<trkpt lat="31.6500700" lon="34.9820900">
<ele>370.000000</ele>
<time>2023-11-22T07:44:03.325Z</time>
</trkpt>
<trkpt lat="31.6500800" lon="34.9825000">
<ele>364.710022</ele>
<time>2023-11-22T07:44:03.325Z</time>
</trkpt>
<trkpt lat="31.6500800" lon="34.9826800">
<ele>364.440002</ele>
<time>2023-11-22T07:44:03.325Z</time>
</trkpt>
<trkpt lat="31.6500400" lon="34.9830800">
<ele>360.479980</ele>
<time>2023-11-22T07:44:03.325Z</time>
</trkpt>
<trkpt lat="31.6500300" lon="34.9832100">
<ele>360.559998</ele>
<time>2023-11-22T07:44:03.325Z</time>
</trkpt>
<trkpt lat="31.6500600" lon="34.9832700">
<ele>361.320007</ele>
<time>2023-11-22T07:44:03.325Z</time>
</trkpt>
<trkpt lat="31.6501300" lon="34.9832700">
<ele>362.850006</ele>
<time>2023-11-22T07:44:03.325Z</time>
</trkpt>
<trkpt lat="31.6504500" lon="34.9831300">
<ele>367.579987</ele>
<time>2023-11-22T07:44:03.325Z</time>
</trkpt>
<trkpt lat="31.6506400" lon="34.9830900">
<ele>370.520020</ele>
<time>2023-11-22T07:44:03.325Z</time>
</trkpt>
<trkpt lat="31.6509000" lon="34.9830700">
<ele>373.740021</ele>
<time>2023-11-22T07:44:03.325Z</time>
</trkpt>
<trkpt lat="31.6512000" lon="34.9830900">
<ele>382.170013</ele>
<time>2023-11-22T07:44:03.325Z</time>
</trkpt>
<trkpt lat="31.6514700" lon="34.9832200">
<ele>384.530029</ele>
<time>2023-11-22T07:44:03.326Z</time>
</trkpt>
<trkpt lat="31.6515200" lon="34.9832800">
<ele>385.009979</ele>
<time>2023-11-22T07:44:03.326Z</time>
</trkpt>
<trkpt lat="31.6516900" lon="34.9836300">
<ele>387.010010</ele>
<time>2023-11-22T07:44:03.326Z</time>
</trkpt>
<trkpt lat="31.6518400" lon="34.9841000">
<ele>389.480011</ele>
<time>2023-11-22T07:44:03.326Z</time>
</trkpt>
<trkpt lat="31.6519100" lon="34.9845100">
<ele>394.339996</ele>
<time>2023-11-22T07:44:03.326Z</time>
</trkpt>
<trkpt lat="31.6519700" lon="34.9845900">
<ele>395.950012</ele>
<time>2023-11-22T07:44:03.326Z</time>
</trkpt>
<trkpt lat="31.6520300" lon="34.9846600">
<ele>397.899994</ele>
<time>2023-11-22T07:44:03.326Z</time>
</trkpt>
<trkpt lat="31.6522100" lon="34.9847700">
<ele>402.790009</ele>
<time>2023-11-22T07:44:03.326Z</time>
</trkpt>
<trkpt lat="31.6524100" lon="34.9848000">
<ele>401.650024</ele>
<time>2023-11-22T07:44:03.326Z</time>
</trkpt>
<trkpt lat="31.6526900" lon="34.9849200">
<ele>400.499969</ele>
<time>2023-11-22T07:44:03.326Z</time>
</trkpt>
<trkpt lat="31.6530200" lon="34.9852000">
<ele>402.279999</ele>
<time>2023-11-22T07:44:03.326Z</time>
</trkpt>
<trkpt lat="31.6532500" lon="34.9855000">
<ele>400.540009</ele>
<time>2023-11-22T07:44:03.326Z</time>
</trkpt>
<trkpt lat="31.6534100" lon="34.9857800">
<ele>399.479980</ele>
<time>2023-11-22T07:44:03.326Z</time>
</trkpt>
<trkpt lat="31.6534800" lon="34.9859500">
<ele>398.549988</ele>
<time>2023-11-22T07:44:03.326Z</time>
</trkpt>
<trkpt lat="31.6535400" lon="34.9862900">
<ele>397.190002</ele>
<time>2023-11-22T07:44:03.326Z</time>
</trkpt>
<trkpt lat="31.6535400" lon="34.9865400">
<ele>396.600006</ele>
<time>2023-11-22T07:44:03.326Z</time>
</trkpt>
<trkpt lat="31.6535400" lon="34.9866800">
<ele>396.430023</ele>
<time>2023-11-22T07:44:03.326Z</time>
</trkpt>
<trkpt lat="31.6535200" lon="34.9868200">
<ele>395.610016</ele>
<time>2023-11-22T07:44:03.326Z</time>
</trkpt>
<trkpt lat="31.6534300" lon="34.9869900">
<ele>393.770020</ele>
<time>2023-11-22T07:44:03.326Z</time>
</trkpt>
<trkpt lat="31.6533000" lon="34.9871800">
<ele>391.939972</ele>
<time>2023-11-22T07:44:03.326Z</time>
</trkpt>
<trkpt lat="31.6529400" lon="34.9875100">
<ele>389.610016</ele>
<time>2023-11-22T07:44:03.326Z</time>
</trkpt>
<trkpt lat="31.6526700" lon="34.9878500">
<ele>388.769989</ele>
<time>2023-11-22T07:44:03.326Z</time>
</trkpt>
<trkpt lat="31.6526200" lon="34.9879300">
<ele>388.670013</ele>
<time>2023-11-22T07:44:03.326Z</time>
</trkpt>
<trkpt lat="31.6525900" lon="34.9881000">
<ele>388.760010</ele>
<time>2023-11-22T07:44:03.326Z</time>
</trkpt>
<trkpt lat="31.6525700" lon="34.9883500">
<ele>389.270020</ele>
<time>2023-11-22T07:44:03.326Z</time>
</trkpt>
<trkpt lat="31.6525700" lon="34.9885300">
<ele>389.419983</ele>
<time>2023-11-22T07:44:03.326Z</time>
</trkpt>
<trkpt lat="31.6526900" lon="34.9897500">
<ele>385.869995</ele>
<time>2023-11-22T07:44:03.327Z</time>
</trkpt>
<trkpt lat="31.6527000" lon="34.9899300">
<ele>385.040009</ele>
<time>2023-11-22T07:44:03.327Z</time>
</trkpt>
<trkpt lat="31.6526900" lon="34.9901600">
<ele>383.710022</ele>
<time>2023-11-22T07:44:03.327Z</time>
</trkpt>
<trkpt lat="31.6526800" lon="34.9902100">
<ele>383.399994</ele>
<time>2023-11-22T07:44:03.327Z</time>
</trkpt>
<trkpt lat="31.6526500" lon="34.9903000">
<ele>383.039978</ele>
<time>2023-11-22T07:44:03.327Z</time>
</trkpt>
<trkpt lat="31.6525900" lon="34.9904700">
<ele>383.470001</ele>
<time>2023-11-22T07:44:03.327Z</time>
</trkpt>
<trkpt lat="31.6525100" lon="34.9905600">
<ele>384.000000</ele>
<time>2023-11-22T07:44:03.327Z</time>
</trkpt>
<trkpt lat="31.6525700" lon="34.9909000">
<ele>386.230011</ele>
<time>2023-11-22T07:44:03.327Z</time>
</trkpt>
<trkpt lat="31.6528600" lon="34.9914100">
<ele>387.170013</ele>
<time>2023-11-22T07:44:03.327Z</time>
</trkpt>
<trkpt lat="31.6531700" lon="34.9914900">
<ele>388.649994</ele>
<time>2023-11-22T07:44:03.327Z</time>
</trkpt>
<trkpt lat="31.6532600" lon="34.9915000">
<ele>389.230011</ele>
<time>2023-11-22T07:44:03.327Z</time>
</trkpt>
<trkpt lat="31.6532900" lon="34.9909600">
<ele>384.610016</ele>
<time>2023-11-22T07:44:03.327Z</time>
</trkpt>
<trkpt lat="31.6533300" lon="34.9906300">
<ele>382.540009</ele>
<time>2023-11-22T07:44:03.327Z</time>
</trkpt>
<trkpt lat="31.6536600" lon="34.9893700">
<ele>376.899994</ele>
<time>2023-11-22T07:44:03.327Z</time>
</trkpt>
<trkpt lat="31.6538000" lon="34.9890000">
<ele>375.679993</ele>
<time>2023-11-22T07:44:03.327Z</time>
</trkpt>
<trkpt lat="31.6538700" lon="34.9888900">
<ele>375.929993</ele>
<time>2023-11-22T07:44:03.327Z</time>
</trkpt>
<trkpt lat="31.6543300" lon="34.9883100">
<ele>371.260010</ele>
<time>2023-11-22T07:44:03.327Z</time>
</trkpt>
<trkpt lat="31.6544900" lon="34.9881100">
<ele>372.800018</ele>
<time>2023-11-22T07:44:03.327Z</time>
</trkpt>
<trkpt lat="31.6546600" lon="34.9878100">
<ele>370.459991</ele>
<time>2023-11-22T07:44:03.327Z</time>
</trkpt>
<trkpt lat="31.6548100" lon="34.9874900">
<ele>369.190002</ele>
<time>2023-11-22T07:44:03.327Z</time>
</trkpt>
<trkpt lat="31.6549100" lon="34.9872500">
<ele>368.900024</ele>
<time>2023-11-22T07:44:03.327Z</time>
</trkpt>
<trkpt lat="31.6550000" lon="34.9869500">
<ele>370.000000</ele>
<time>2023-11-22T07:44:03.327Z</time>
</trkpt>
<trkpt lat="31.6550300" lon="34.9868300">
<ele>369.979980</ele>
<time>2023-11-22T07:44:03.327Z</time>
</trkpt>
<trkpt lat="31.6550600" lon="34.9861700">
<ele>368.839996</ele>
<time>2023-11-22T07:44:03.327Z</time>
</trkpt>
<trkpt lat="31.6550600" lon="34.9860400">
<ele>369.120026</ele>
<time>2023-11-22T07:44:03.327Z</time>
</trkpt>
<trkpt lat="31.6550400" lon="34.9857700">
<ele>369.580017</ele>
<time>2023-11-22T07:44:03.327Z</time>
</trkpt>
<trkpt lat="31.6547300" lon="34.9849200">
<ele>371.760010</ele>
<time>2023-11-22T07:44:03.327Z</time>
</trkpt>
<trkpt lat="31.6546700" lon="34.9848400">
<ele>371.479980</ele>
<time>2023-11-22T07:44:03.328Z</time>
</trkpt>
<trkpt lat="31.6537000" lon="34.9836100">
<ele>369.240021</ele>
<time>2023-11-22T07:44:03.328Z</time>
</trkpt>
<trkpt lat="31.6536400" lon="34.9835100">
<ele>367.839996</ele>
<time>2023-11-22T07:44:03.328Z</time>
</trkpt>
<trkpt lat="31.6530100" lon="34.9822800">
<ele>363.129974</ele>
<time>2023-11-22T07:44:03.328Z</time>
</trkpt>
<trkpt lat="31.6526100" lon="34.9816500">
<ele>360.080017</ele>
<time>2023-11-22T07:44:03.328Z</time>
</trkpt>
<trkpt lat="31.6525600" lon="34.9815200">
<ele>358.410004</ele>
<time>2023-11-22T07:44:03.328Z</time>
</trkpt>
<trkpt lat="31.6525400" lon="34.9813800">
<ele>356.799988</ele>
<time>2023-11-22T07:44:03.328Z</time>
</trkpt>
<trkpt lat="31.6525400" lon="34.9812400">
<ele>355.790009</ele>
<time>2023-11-22T07:44:03.328Z</time>
</trkpt>
<trkpt lat="31.6525500" lon="34.9808700">
<ele>352.479980</ele>
<time>2023-11-22T07:44:03.328Z</time>
</trkpt>
<trkpt lat="31.6525800" lon="34.9805600">
<ele>350.190002</ele>
<time>2023-11-22T07:44:03.328Z</time>
</trkpt>
<trkpt lat="31.6529500" lon="34.9795100">
<ele>347.389984</ele>
<time>2023-11-22T07:44:03.328Z</time>
</trkpt>
<trkpt lat="31.6532000" lon="34.9785100">
<ele>347.759979</ele>
<time>2023-11-22T07:44:03.328Z</time>
</trkpt>
<trkpt lat="31.6532200" lon="34.9783400">
<ele>347.580017</ele>
<time>2023-11-22T07:44:03.328Z</time>
</trkpt>
<trkpt lat="31.6532000" lon="34.9780500">
<ele>347.190002</ele>
<time>2023-11-22T07:44:03.328Z</time>
</trkpt>
<trkpt lat="31.6530100" lon="34.9773600">
<ele>346.009979</ele>
<time>2023-11-22T07:44:03.328Z</time>
</trkpt>
<trkpt lat="31.6529000" lon="34.9767500">
<ele>347.079987</ele>
<time>2023-11-22T07:44:03.328Z</time>
</trkpt>
<trkpt lat="31.6528500" lon="34.9765100">
<ele>347.119995</ele>
<time>2023-11-22T07:44:03.328Z</time>
</trkpt>
<trkpt lat="31.6528200" lon="34.9764500">
<ele>346.689972</ele>
<time>2023-11-22T07:44:03.328Z</time>
</trkpt>
<trkpt lat="31.6527100" lon="34.9762200">
<ele>347.039978</ele>
<time>2023-11-22T07:44:03.328Z</time>
</trkpt>
<trkpt lat="31.6524900" lon="34.9759200">
<ele>346.940002</ele>
<time>2023-11-22T07:44:03.328Z</time>
</trkpt>
<trkpt lat="31.6524200" lon="34.9756800">
<ele>345.299988</ele>
<time>2023-11-22T07:44:03.328Z</time>
</trkpt>
<trkpt lat="31.6524200" lon="34.9755600">
<ele>344.309998</ele>
<time>2023-11-22T07:44:03.328Z</time>
</trkpt>
<trkpt lat="31.6524200" lon="34.9753200">
<ele>341.970001</ele>
<time>2023-11-22T07:44:03.328Z</time>
</trkpt>
<trkpt lat="31.6524500" lon="34.9751100">
<ele>341.110016</ele>
<time>2023-11-22T07:44:03.328Z</time>
</trkpt>
<trkpt lat="31.6524800" lon="34.9750200">
<ele>340.919983</ele>
<time>2023-11-22T07:44:03.328Z</time>
</trkpt>
<trkpt lat="31.6530300" lon="34.9739800">
<ele>344.339996</ele>
<time>2023-11-22T07:44:03.328Z</time>
</trkpt>
<trkpt lat="31.6530700" lon="34.9737700">
<ele>343.839996</ele>
<time>2023-11-22T07:44:03.329Z</time>
</trkpt>
<trkpt lat="31.6530900" lon="34.9732100">
<ele>340.709991</ele>
<time>2023-11-22T07:44:03.329Z</time>
</trkpt>
<trkpt lat="31.6531200" lon="34.9730600">
<ele>339.220001</ele>
<time>2023-11-22T07:44:03.329Z</time>
</trkpt>
<trkpt lat="31.6532300" lon="34.9726600">
<ele>337.040009</ele>
<time>2023-11-22T07:44:03.329Z</time>
</trkpt>
<trkpt lat="31.6534000" lon="34.9722400">
<ele>335.989990</ele>
<time>2023-11-22T07:44:03.329Z</time>
</trkpt>
<trkpt lat="31.6536500" lon="34.9717500">
<ele>335.040009</ele>
<time>2023-11-22T07:44:03.329Z</time>
</trkpt>
<trkpt lat="31.6536900" lon="34.9716200">
<ele>334.350006</ele>
<time>2023-11-22T07:44:03.329Z</time>
</trkpt>
<trkpt lat="31.6538000" lon="34.9709200">
<ele>329.980011</ele>
<time>2023-11-22T07:44:03.329Z</time>
</trkpt>
<trkpt lat="31.6540600" lon="34.9704500">
<ele>328.570007</ele>
<time>2023-11-22T07:44:03.329Z</time>
</trkpt>
<trkpt lat="31.6543800" lon="34.9698000">
<ele>330.160004</ele>
<time>2023-11-22T07:44:03.329Z</time>
</trkpt>
<trkpt lat="31.6544300" lon="34.9696800">
<ele>331.639984</ele>
<time>2023-11-22T07:44:03.329Z</time>
</trkpt>
<trkpt lat="31.6544700" lon="34.9694100">
<ele>332.219971</ele>
<time>2023-11-22T07:44:03.329Z</time>
</trkpt>
<trkpt lat="31.6545000" lon="34.9682900">
<ele>327.139984</ele>
<time>2023-11-22T07:44:03.329Z</time>
</trkpt>
<trkpt lat="31.6544900" lon="34.9681100">
<ele>326.720001</ele>
<time>2023-11-22T07:44:03.329Z</time>
</trkpt>
<trkpt lat="31.6545200" lon="34.9678600">
<ele>326.709991</ele>
<time>2023-11-22T07:44:03.329Z</time>
</trkpt>
<trkpt lat="31.6545600" lon="34.9677100">
<ele>326.339996</ele>
<time>2023-11-22T07:44:03.329Z</time>
</trkpt>
<trkpt lat="31.6548600" lon="34.9671400">
<ele>323.789978</ele>
<time>2023-11-22T07:44:03.329Z</time>
</trkpt>
<trkpt lat="31.6550000" lon="34.9668400">
<ele>322.500031</ele>
<time>2023-11-22T07:44:03.329Z</time>
</trkpt>
<trkpt lat="31.6554800" lon="34.9657700">
<ele>322.429993</ele>
<time>2023-11-22T07:44:03.329Z</time>
</trkpt>
<trkpt lat="31.6558200" lon="34.9649600">
<ele>316.630005</ele>
<time>2023-11-22T07:44:03.329Z</time>
</trkpt>
<trkpt lat="31.6560200" lon="34.9645700">
<ele>316.580017</ele>
<time>2023-11-22T07:44:03.329Z</time>
</trkpt>
<trkpt lat="31.6563800" lon="34.9640900">
<ele>319.690002</ele>
<time>2023-11-22T07:44:03.329Z</time>
</trkpt>
<trkpt lat="31.6564300" lon="34.9640000">
<ele>319.399994</ele>
<time>2023-11-22T07:44:03.329Z</time>
</trkpt>
<trkpt lat="31.6565100" lon="34.9637700">
<ele>317.279968</ele>
<time>2023-11-22T07:44:03.329Z</time>
</trkpt>
<trkpt lat="31.6570200" lon="34.9623600">
<ele>317.529999</ele>
<time>2023-11-22T07:44:03.329Z</time>
</trkpt>
<trkpt lat="31.6570800" lon="34.9619400">
<ele>316.930023</ele>
<time>2023-11-22T07:44:03.329Z</time>
</trkpt>
<trkpt lat="31.6571500" lon="34.9615200">
<ele>316.029999</ele>
<time>2023-11-22T07:44:03.330Z</time>
</trkpt>
<trkpt lat="31.6572200" lon="34.9611800">
<ele>313.949982</ele>
<time>2023-11-22T07:44:03.330Z</time>
</trkpt>
<trkpt lat="31.6574000" lon="34.9606300">
<ele>309.139984</ele>
<time>2023-11-22T07:44:03.330Z</time>
</trkpt>
<trkpt lat="31.6574900" lon="34.9603500">
<ele>306.480011</ele>
<time>2023-11-22T07:44:03.330Z</time>
</trkpt>
<trkpt lat="31.6577300" lon="34.9599300">
<ele>302.240021</ele>
<time>2023-11-22T07:44:03.330Z</time>
</trkpt>
<trkpt lat="31.6578900" lon="34.9597600">
<ele>300.410004</ele>
<time>2023-11-22T07:44:03.330Z</time>
</trkpt>
<trkpt lat="31.6580000" lon="34.9596700">
<ele>299.850006</ele>
<time>2023-11-22T07:44:03.330Z</time>
</trkpt>
<trkpt lat="31.6581300" lon="34.9595900">
<ele>299.820007</ele>
<time>2023-11-22T07:44:03.330Z</time>
</trkpt>
<trkpt lat="31.6583900" lon="34.9594900">
<ele>299.470001</ele>
<time>2023-11-22T07:44:03.330Z</time>
</trkpt>
<trkpt lat="31.6590000" lon="34.9592700">
<ele>305.770020</ele>
<time>2023-11-22T07:44:03.330Z</time>
</trkpt>
<trkpt lat="31.6593800" lon="34.9591300">
<ele>315.279999</ele>
<time>2023-11-22T07:44:03.330Z</time>
</trkpt>
<trkpt lat="31.6594500" lon="34.9590900">
<ele>317.360016</ele>
<time>2023-11-22T07:44:03.330Z</time>
</trkpt>
<trkpt lat="31.6595200" lon="34.9590100">
<ele>318.809998</ele>
<time>2023-11-22T07:44:03.330Z</time>
</trkpt>
<trkpt lat="31.6595700" lon="34.9589200">
<ele>320.100006</ele>
<time>2023-11-22T07:44:03.330Z</time>
</trkpt>
<trkpt lat="31.6595800" lon="34.9588500">
<ele>320.160004</ele>
<time>2023-11-22T07:44:03.330Z</time>
</trkpt>
<trkpt lat="31.6595900" lon="34.9587700">
<ele>319.760010</ele>
<time>2023-11-22T07:44:03.330Z</time>
</trkpt>
<trkpt lat="31.6595900" lon="34.9586700">
<ele>319.039978</ele>
<time>2023-11-22T07:44:03.330Z</time>
</trkpt>
<trkpt lat="31.6595700" lon="34.9586100">
<ele>318.279999</ele>
<time>2023-11-22T07:44:03.330Z</time>
</trkpt>
<trkpt lat="31.6593400" lon="34.9583300">
<ele>318.670013</ele>
<time>2023-11-22T07:44:03.330Z</time>
</trkpt>
<trkpt lat="31.6587800" lon="34.9578100">
<ele>316.089996</ele>
<time>2023-11-22T07:44:03.330Z</time>
</trkpt>
<trkpt lat="31.6586100" lon="34.9575900">
<ele>310.950012</ele>
<time>2023-11-22T07:44:03.330Z</time>
</trkpt>
<trkpt lat="31.6585500" lon="34.9574800">
<ele>309.029999</ele>
<time>2023-11-22T07:44:03.330Z</time>
</trkpt>
<trkpt lat="31.6584600" lon="34.9571400">
<ele>305.850006</ele>
<time>2023-11-22T07:44:03.330Z</time>
</trkpt>
<trkpt lat="31.6584400" lon="34.9568500">
<ele>304.270020</ele>
<time>2023-11-22T07:44:03.330Z</time>
</trkpt>
<trkpt lat="31.6584400" lon="34.9566700">
<ele>303.779999</ele>
<time>2023-11-22T07:44:03.330Z</time>
</trkpt>
<trkpt lat="31.6584400" lon="34.9563800">
<ele>300.279999</ele>
<time>2023-11-22T07:44:03.330Z</time>
</trkpt>
<trkpt lat="31.6584800" lon="34.9561500">
<ele>298.000000</ele>
<time>2023-11-22T07:44:03.330Z</time>
</trkpt>
<trkpt lat="31.6589900" lon="34.9551700">
<ele>298.880005</ele>
<time>2023-11-22T07:44:03.331Z</time>
</trkpt>
<trkpt lat="31.6590700" lon="34.9549600">
<ele>300.119995</ele>
<time>2023-11-22T07:44:03.331Z</time>
</trkpt>
<trkpt lat="31.6591000" lon="34.9548100">
<ele>300.119995</ele>
<time>2023-11-22T07:44:03.331Z</time>
</trkpt>
<trkpt lat="31.6591200" lon="34.9544400">
<ele>299.170013</ele>
<time>2023-11-22T07:44:03.331Z</time>
</trkpt>
<trkpt lat="31.6591300" lon="34.9537800">
<ele>298.029999</ele>
<time>2023-11-22T07:44:03.331Z</time>
</trkpt>
<trkpt lat="31.6591600" lon="34.9534000">
<ele>294.890015</ele>
<time>2023-11-22T07:44:03.331Z</time>
</trkpt>
<trkpt lat="31.6592700" lon="34.9527300">
<ele>291.619995</ele>
<time>2023-11-22T07:44:03.331Z</time>
</trkpt>
<trkpt lat="31.6594700" lon="34.9520800">
<ele>290.130005</ele>
<time>2023-11-22T07:44:03.331Z</time>
</trkpt>
<trkpt lat="31.6595700" lon="34.9515800">
<ele>289.040009</ele>
<time>2023-11-22T07:44:03.331Z</time>
</trkpt>
<trkpt lat="31.6596100" lon="34.9514700">
<ele>289.079987</ele>
<time>2023-11-22T07:44:03.331Z</time>
</trkpt>
<trkpt lat="31.6596700" lon="34.9513700">
<ele>289.299988</ele>
<time>2023-11-22T07:44:03.331Z</time>
</trkpt>
<trkpt lat="31.6600700" lon="34.9508100">
<ele>282.040009</ele>
<time>2023-11-22T07:44:03.331Z</time>
</trkpt>
<trkpt lat="31.6601200" lon="34.9507600">
<ele>281.320007</ele>
<time>2023-11-22T07:44:03.331Z</time>
</trkpt>
<trkpt lat="31.6602100" lon="34.9507100">
<ele>280.619995</ele>
<time>2023-11-22T07:44:03.331Z</time>
</trkpt>
<trkpt lat="31.6604100" lon="34.9506800">
<ele>281.450012</ele>
<time>2023-11-22T07:44:03.331Z</time>
</trkpt>
<trkpt lat="31.6605100" lon="34.9506800">
<ele>282.440002</ele>
<time>2023-11-22T07:44:03.331Z</time>
</trkpt>
<trkpt lat="31.6606700" lon="34.9506900">
<ele>284.220001</ele>
<time>2023-11-22T07:44:03.331Z</time>
</trkpt>
<trkpt lat="31.6610800" lon="34.9508100">
<ele>287.700012</ele>
<time>2023-11-22T07:44:03.331Z</time>
</trkpt>
<trkpt lat="31.6612300" lon="34.9508300">
<ele>289.670013</ele>
<time>2023-11-22T07:44:03.331Z</time>
</trkpt>
<trkpt lat="31.6613500" lon="34.9508300">
<ele>291.369995</ele>
<time>2023-11-22T07:44:03.331Z</time>
</trkpt>
<trkpt lat="31.6617400" lon="34.9506700">
<ele>289.699982</ele>
<time>2023-11-22T07:44:03.331Z</time>
</trkpt>
<trkpt lat="31.6619300" lon="34.9505100">
<ele>290.290009</ele>
<time>2023-11-22T07:44:03.331Z</time>
</trkpt>
<trkpt lat="31.6621000" lon="34.9502800">
<ele>290.830017</ele>
<time>2023-11-22T07:44:03.331Z</time>
</trkpt>
<trkpt lat="31.6621500" lon="34.9501500">
<ele>289.979980</ele>
<time>2023-11-22T07:44:03.331Z</time>
</trkpt>
<trkpt lat="31.6621900" lon="34.9500100">
<ele>288.679993</ele>
<time>2023-11-22T07:44:03.331Z</time>
</trkpt>
<trkpt lat="31.6623500" lon="34.9486000">
<ele>276.649994</ele>
<time>2023-11-22T07:44:03.331Z</time>
</trkpt>
<trkpt lat="31.6624900" lon="34.9482800">
<ele>271.440002</ele>
<time>2023-11-22T07:44:03.331Z</time>
</trkpt>
<trkpt lat="31.6627200" lon="34.9479000">
<ele>269.000000</ele>
<time>2023-11-22T07:44:03.332Z</time>
</trkpt>
<trkpt lat="31.6628600" lon="34.9477400">
<ele>270.089996</ele>
<time>2023-11-22T07:44:03.332Z</time>
</trkpt>
<trkpt lat="31.6632800" lon="34.9474000">
<ele>271.059998</ele>
<time>2023-11-22T07:44:03.332Z</time>
</trkpt>
<trkpt lat="31.6634100" lon="34.9473600">
<ele>272.130005</ele>
<time>2023-11-22T07:44:03.332Z</time>
</trkpt>
<trkpt lat="31.6639100" lon="34.9473300">
<ele>279.160004</ele>
<time>2023-11-22T07:44:03.332Z</time>
</trkpt>
<trkpt lat="31.6639900" lon="34.9472900">
<ele>280.309998</ele>
<time>2023-11-22T07:44:03.332Z</time>
</trkpt>
<trkpt lat="31.6640400" lon="34.9472100">
<ele>280.539978</ele>
<time>2023-11-22T07:44:03.332Z</time>
</trkpt>
<trkpt lat="31.6642300" lon="34.9464100">
<ele>272.769989</ele>
<time>2023-11-22T07:44:03.332Z</time>
</trkpt>
<trkpt lat="31.6643000" lon="34.9462800">
<ele>271.410004</ele>
<time>2023-11-22T07:44:03.332Z</time>
</trkpt>
<trkpt lat="31.6644300" lon="34.9461500">
<ele>269.690002</ele>
<time>2023-11-22T07:44:03.332Z</time>
</trkpt>
<trkpt lat="31.6648700" lon="34.9459500">
<ele>266.989990</ele>
<time>2023-11-22T07:44:03.332Z</time>
</trkpt>
<trkpt lat="31.6654100" lon="34.9459300">
<ele>266.149994</ele>
<time>2023-11-22T07:44:03.332Z</time>
</trkpt>
<trkpt lat="31.6658700" lon="34.9458500">
<ele>264.050018</ele>
<time>2023-11-22T07:44:03.332Z</time>
</trkpt>
<trkpt lat="31.6663500" lon="34.9456900">
<ele>257.440002</ele>
<time>2023-11-22T07:44:03.332Z</time>
</trkpt>
<trkpt lat="31.6674700" lon="34.9455400">
<ele>270.679993</ele>
<time>2023-11-22T07:44:03.332Z</time>
</trkpt>
<trkpt lat="31.6677600" lon="34.9455800">
<ele>272.799988</ele>
<time>2023-11-22T07:44:03.332Z</time>
</trkpt>
<trkpt lat="31.6679500" lon="34.9456000">
<ele>271.699982</ele>
<time>2023-11-22T07:44:03.332Z</time>
</trkpt>
<trkpt lat="31.6681400" lon="34.9456100">
<ele>272.519989</ele>
<time>2023-11-22T07:44:03.332Z</time>
</trkpt>
<trkpt lat="31.6682500" lon="34.9456500">
<ele>274.500000</ele>
<time>2023-11-22T07:44:03.332Z</time>
</trkpt>
<trkpt lat="31.6683700" lon="34.9458200">
<ele>276.790009</ele>
<time>2023-11-22T07:44:03.332Z</time>
</trkpt>
<trkpt lat="31.6688000" lon="34.9452000">
<ele>278.730011</ele>
<time>2023-11-22T07:44:03.332Z</time>
</trkpt>
<trkpt lat="31.6700500" lon="34.9431900">
<ele>266.239990</ele>
<time>2023-11-22T07:44:03.332Z</time>
</trkpt>
<trkpt lat="31.6692500" lon="34.9427900">
<ele>264.790009</ele>
<time>2023-11-22T07:44:03.332Z</time>
</trkpt>
<trkpt lat="31.6691500" lon="34.9424900">
<ele>259.989990</ele>
<time>2023-11-22T07:44:03.332Z</time>
</trkpt>
<trkpt lat="31.6692200" lon="34.9423600">
<ele>258.700012</ele>
<time>2023-11-22T07:44:03.332Z</time>
</trkpt>
<trkpt lat="31.6691600" lon="34.9422300">
<ele>258.080017</ele>
<time>2023-11-22T07:44:03.332Z</time>
</trkpt>
<trkpt lat="31.6689300" lon="34.9419100">
<ele>257.769989</ele>
<time>2023-11-22T07:44:03.332Z</time>
</trkpt>
<trkpt lat="31.6684400" lon="34.9414100">
<ele>268.940002</ele>
<time>2023-11-22T07:44:03.333Z</time>
</trkpt>
<trkpt lat="31.6676000" lon="34.9405500">
<ele>285.209991</ele>
<time>2023-11-22T07:44:03.333Z</time>
</trkpt>
<trkpt lat="31.6674500" lon="34.9405100">
<ele>287.160004</ele>
<time>2023-11-22T07:44:03.333Z</time>
</trkpt>
<trkpt lat="31.6673400" lon="34.9404900">
<ele>287.239990</ele>
<time>2023-11-22T07:44:03.333Z</time>
</trkpt>
<trkpt lat="31.6664500" lon="34.9404800">
<ele>286.890015</ele>
<time>2023-11-22T07:44:03.333Z</time>
</trkpt>
<trkpt lat="31.6663200" lon="34.9404600">
<ele>288.670013</ele>
<time>2023-11-22T07:44:03.333Z</time>
</trkpt>
<trkpt lat="31.6657800" lon="34.9403800">
<ele>298.529999</ele>
<time>2023-11-22T07:44:03.333Z</time>
</trkpt>
<trkpt lat="31.6657500" lon="34.9403400">
<ele>298.920013</ele>
<time>2023-11-22T07:44:03.333Z</time>
</trkpt>
<trkpt lat="31.6657300" lon="34.9402700">
<ele>299.489990</ele>
<time>2023-11-22T07:44:03.333Z</time>
</trkpt>
<trkpt lat="31.6657500" lon="34.9401800">
<ele>300.850006</ele>
<time>2023-11-22T07:44:03.333Z</time>
</trkpt>
<trkpt lat="31.6665400" lon="34.9399600">
<ele>295.149994</ele>
<time>2023-11-22T07:44:03.333Z</time>
</trkpt>
<trkpt lat="31.6667700" lon="34.9398900">
<ele>296.730011</ele>
<time>2023-11-22T07:44:03.333Z</time>
</trkpt>
<trkpt lat="31.6669400" lon="34.9397900">
<ele>297.820007</ele>
<time>2023-11-22T07:44:03.333Z</time>
</trkpt>
<trkpt lat="31.6670200" lon="34.9397100">
<ele>297.410004</ele>
<time>2023-11-22T07:44:03.333Z</time>
</trkpt>
<trkpt lat="31.6674000" lon="34.9392500">
<ele>292.390015</ele>
<time>2023-11-22T07:44:03.333Z</time>
</trkpt>
<trkpt lat="31.6674900" lon="34.9391200">
<ele>291.700012</ele>
<time>2023-11-22T07:44:03.333Z</time>
</trkpt>
<trkpt lat="31.6676500" lon="34.9387600">
<ele>295.250000</ele>
<time>2023-11-22T07:44:03.333Z</time>
</trkpt>
<trkpt lat="31.6676800" lon="34.9387300">
<ele>295.589996</ele>
<time>2023-11-22T07:44:03.333Z</time>
</trkpt>
<trkpt lat="31.6677400" lon="34.9387100">
<ele>296.059998</ele>
<time>2023-11-22T07:44:03.333Z</time>
</trkpt>
<trkpt lat="31.6678200" lon="34.9387100">
<ele>296.899994</ele>
<time>2023-11-22T07:44:03.333Z</time>
</trkpt>
<trkpt lat="31.6679100" lon="34.9387700">
<ele>297.760010</ele>
<time>2023-11-22T07:44:03.333Z</time>
</trkpt>
<trkpt lat="31.6681500" lon="34.9392000">
<ele>296.959991</ele>
<time>2023-11-22T07:44:03.333Z</time>
</trkpt>
<trkpt lat="31.6683400" lon="34.9394600">
<ele>294.949982</ele>
<time>2023-11-22T07:44:03.333Z</time>
</trkpt>
<trkpt lat="31.6684300" lon="34.9395400">
<ele>294.300018</ele>
<time>2023-11-22T07:44:03.333Z</time>
</trkpt>
<trkpt lat="31.6686300" lon="34.9396500">
<ele>293.089996</ele>
<time>2023-11-22T07:44:03.333Z</time>
</trkpt>
<trkpt lat="31.6688100" lon="34.9396600">
<ele>293.880005</ele>
<time>2023-11-22T07:44:03.333Z</time>
</trkpt>
<trkpt lat="31.6690500" lon="34.9396600">
<ele>294.220001</ele>
<time>2023-11-22T07:44:03.333Z</time>
</trkpt>
<trkpt lat="31.6691100" lon="34.9396500">
<ele>294.259979</ele>
<time>2023-11-22T07:44:03.334Z</time>
</trkpt>
<trkpt lat="31.6692500" lon="34.9395700">
<ele>294.410004</ele>
<time>2023-11-22T07:44:03.334Z</time>
</trkpt>
<trkpt lat="31.6694300" lon="34.9393900">
<ele>294.809998</ele>
<time>2023-11-22T07:44:03.334Z</time>
</trkpt>
<trkpt lat="31.6695000" lon="34.9392600">
<ele>293.529999</ele>
<time>2023-11-22T07:44:03.334Z</time>
</trkpt>
<trkpt lat="31.6695800" lon="34.9390500">
<ele>292.959991</ele>
<time>2023-11-22T07:44:03.334Z</time>
</trkpt>
<trkpt lat="31.6696600" lon="34.9385900">
<ele>293.470001</ele>
<time>2023-11-22T07:44:03.334Z</time>
</trkpt>
<trkpt lat="31.6696700" lon="34.9380900">
<ele>295.149994</ele>
<time>2023-11-22T07:44:03.334Z</time>
</trkpt>
<trkpt lat="31.6696700" lon="34.9378300">
<ele>296.190002</ele>
<time>2023-11-22T07:44:03.334Z</time>
</trkpt>
<trkpt lat="31.6696700" lon="34.9377100">
<ele>296.670013</ele>
<time>2023-11-22T07:44:03.334Z</time>
</trkpt>
<trkpt lat="31.6695900" lon="34.9373100">
<ele>301.779999</ele>
<time>2023-11-22T07:44:03.334Z</time>
</trkpt>
<trkpt lat="31.6691600" lon="34.9362000">
<ele>307.410004</ele>
<time>2023-11-22T07:44:03.334Z</time>
</trkpt>
<trkpt lat="31.6689000" lon="34.9357700">
<ele>308.429993</ele>
<time>2023-11-22T07:44:03.334Z</time>
</trkpt>
<trkpt lat="31.6687000" lon="34.9355000">
<ele>306.899994</ele>
<time>2023-11-22T07:44:03.334Z</time>
</trkpt>
<trkpt lat="31.6685900" lon="34.9353900">
<ele>308.220001</ele>
<time>2023-11-22T07:44:03.334Z</time>
</trkpt>
<trkpt lat="31.6679900" lon="34.9349600">
<ele>304.279999</ele>
<time>2023-11-22T07:44:03.334Z</time>
</trkpt>
<trkpt lat="31.6678500" lon="34.9349000">
<ele>301.970001</ele>
<time>2023-11-22T07:44:03.334Z</time>
</trkpt>
<trkpt lat="31.6676700" lon="34.9348200">
<ele>300.270020</ele>
<time>2023-11-22T07:44:03.334Z</time>
</trkpt>
<trkpt lat="31.6675900" lon="34.9348100">
<ele>300.049988</ele>
<time>2023-11-22T07:44:03.334Z</time>
</trkpt>
<trkpt lat="31.6673800" lon="34.9348100">
<ele>300.239990</ele>
<time>2023-11-22T07:44:03.334Z</time>
</trkpt>
<trkpt lat="31.6672400" lon="34.9348200">
<ele>300.660004</ele>
<time>2023-11-22T07:44:03.334Z</time>
</trkpt>
<trkpt lat="31.6666900" lon="34.9350700">
<ele>298.010010</ele>
<time>2023-11-22T07:44:03.334Z</time>
</trkpt>
<trkpt lat="31.6662700" lon="34.9353100">
<ele>298.970001</ele>
<time>2023-11-22T07:44:03.334Z</time>
</trkpt>
<trkpt lat="31.6662400" lon="34.9353500">
<ele>299.380005</ele>
<time>2023-11-22T07:44:03.334Z</time>
</trkpt>
<trkpt lat="31.6660700" lon="34.9353900">
<ele>299.559998</ele>
<time>2023-11-22T07:44:03.334Z</time>
</trkpt>
<trkpt lat="31.6660300" lon="34.9354400">
<ele>300.169983</ele>
<time>2023-11-22T07:44:03.334Z</time>
</trkpt>
<trkpt lat="31.6660900" lon="34.9354700">
<ele>300.720001</ele>
<time>2023-11-22T07:44:03.334Z</time>
</trkpt>
<trkpt lat="31.6661400" lon="34.9356700">
<ele>304.059998</ele>
<time>2023-11-22T07:44:03.334Z</time>
</trkpt>
<trkpt lat="31.6662300" lon="34.9358500">
<ele>307.049988</ele>
<time>2023-11-22T07:44:03.335Z</time>
</trkpt>
<trkpt lat="31.6665600" lon="34.9362800">
<ele>308.989990</ele>
<time>2023-11-22T07:44:03.335Z</time>
</trkpt>
<trkpt lat="31.6666500" lon="34.9367000">
<ele>309.869995</ele>
<time>2023-11-22T07:44:03.335Z</time>
</trkpt>
<trkpt lat="31.6666300" lon="34.9369400">
<ele>309.609985</ele>
<time>2023-11-22T07:44:03.335Z</time>
</trkpt>
<trkpt lat="31.6665200" lon="34.9370900">
<ele>307.799988</ele>
<time>2023-11-22T07:44:03.335Z</time>
</trkpt>
<trkpt lat="31.6662200" lon="34.9372500">
<ele>301.690002</ele>
<time>2023-11-22T07:44:03.335Z</time>
</trkpt>
<trkpt lat="31.6660000" lon="34.9374300">
<ele>302.290009</ele>
<time>2023-11-22T07:44:03.335Z</time>
</trkpt>
<trkpt lat="31.6654000" lon="34.9380000">
<ele>304.519989</ele>
<time>2023-11-22T07:44:03.335Z</time>
</trkpt>
<trkpt lat="31.6650800" lon="34.9383200">
<ele>304.109985</ele>
<time>2023-11-22T07:44:03.335Z</time>
</trkpt>
<trkpt lat="31.6649200" lon="34.9384600">
<ele>302.640015</ele>
<time>2023-11-22T07:44:03.335Z</time>
</trkpt>
<trkpt lat="31.6646800" lon="34.9384500">
<ele>297.890015</ele>
<time>2023-11-22T07:44:03.335Z</time>
</trkpt>
<trkpt lat="31.6644400" lon="34.9385200">
<ele>296.350006</ele>
<time>2023-11-22T07:44:03.335Z</time>
</trkpt>
<trkpt lat="31.6641700" lon="34.9385700">
<ele>297.399994</ele>
<time>2023-11-22T07:44:03.335Z</time>
</trkpt>
<trkpt lat="31.6639300" lon="34.9383900">
<ele>299.600006</ele>
<time>2023-11-22T07:44:03.335Z</time>
</trkpt>
</trkseg>
</trk>
</gpx>
